GFSNW_sfc_30mbdewp_000.txt.gz
Dewpoint
53 53 52 52 52 47 47 47 35 47 49 36 37 33 30 30 29 32 31 31 30 29 29 29 27 27 29 29 28 30 31 32 29 28 30 28 29 28 26 25 24 26 27 25
53 53 52 52 52 47 47 40 39 45 48 36 38 35 34 34 31 32 30 32 32 33 31 31 30 31 33 31 29 33 33 32 28 25 25 27 27 27 27 29 31 27 27 25
53 53 52 52 52 47 46 39 36 41 42 41 36 35 36 36 38 35 35 34 35 34 33 33 32 32 34 36 33 34 35 33 31 26 25 28 28 29 29 30 29 28 28 27
53 53 52 52 52 47 44 40 38 38 36 38 38 38 36 36 36 37 35 35 35 34 33 31 32 33 32 34 36 37 36 32 31 31 30 30 30 29 29 29 30 29 29 27
53 53 53 52 52 47 42 40 40 40 39 37 34 35 35 34 34 34 33 34 36 35 33 33 32 33 34 34 35 35 35 32 33 31 31 31 30 30 30 30 29 29 29 30
53 53 53 52 52 48 43 43 41 43 36 37 34 33 34 33 35 36 36 36 36 36 35 36 36 37 37 36 35 35 35 34 33 29 30 31 29 31 30 28 29 30 28 29
53 52 52 52 51 49 47 45 41 37 37 37 35 32 35 35 37 35 36 39 38 38 40 40 39 38 37 37 36 37 37 34 34 30 31 24 24 25 25 25 27 27 27 29
52 52 52 51 51 47 49 46 44 43 36 39 37 36 36 38 38 37 38 38 40 42 40 37 35 34 33 32 33 35 37 35 32 29 28 26 25 25 26 26 26 26 26 28
52 52 51 51 51 50 51 49 47 45 39 39 38 37 38 38 39 39 39 40 42 41 40 36 31 28 28 27 30 31 33 36 33 32 27 22 25 27 26 25 24 28 28 33
52 51 51 50 50 51 52 53 50 48 43 45 40 39 40 40 40 38 40 40 40 41 37 34 32 30 30 28 30 31 31 31 29 29 27 29 29 27 28 26 28 33 35 35
51 51 51 50 50 50 52 52 51 49 45 45 43 43 41 41 40 39 40 39 40 37 35 34 34 32 33 33 31 31 30 31 29 31 28 25 29 26 26 30 36 35 36 37
51 51 51 50 50 50 51 50 53 51 47 46 48 46 45 44 42 40 41 38 38 40 38 37 37 33 34 34 29 33 31 34 31 30 28 30 32 32 35 37 36 36 37 38
51 51 50 50 50 50 51 50 52 50 45 46 47 46 47 47 46 46 42 41 41 40 40 39 38 34 36 32 33 33 34 36 34 35 34 33 34 36 37 37 37 37 39 41
50 50 50 50 50 50 50 49 52 50 44 40 42 48 46 47 47 46 46 44 45 44 45 40 37 35 39 35 36 35 36 37 36 36 38 35 36 35 36 38 38 39 39 41
50 50 50 51 50 50 50 50 51 51 46 40 39 43 45 45 46 46 46 46 45 45 40 38 37 39 39 39 38 36 39 37 35 33 35 36 37 36 35 36 37 39 41 40
49 49 50 50 49 49 47 42 47 50 49 42 36 41 41 44 45 44 43 44 45 45 41 39 40 41 39 34 33 36 36 36 35 35 36 36 35 36 36 38 39 39 39 40
47 48 48 48 49 48 44 40 44 48 49 40 33 35 38 37 40 42 42 44 44 43 41 39 39 38 40 36 32 34 35 33 33 35 36 36 35 36 38 38 33 31 33 37
46 46 46 47 47 45 43 46 48 48 43 40 32 33 35 37 37 37 40 40 40 41 39 40 37 37 37 33 32 31 28 29 31 32 34 36 36 35 27 25 25 26 29 34
45 45 46 45 42 39 41 46 47 47 42 33 32 30 31 37 37 37 38 38 35 40 36 36 34 34 31 29 27 28 29 30 31 34 34 31 23 22 24 25 27 29 31 34
45 42 38 35 40 44 45 42 37 36 37 36 32 36 33 35 35 34 35 35 33 30 33 36 33 31 31 30 31 31 32 33 32 27 23 23 25 24 26 30 33 35 34 34
39 37 36 41 43 42 38 33 32 33 31 34 35 35 32 36 31 32 36 33 32 28 28 31 29 27 26 28 28 28 25 25 24 23 24 25 27 29 30 32 34 33 33 31
38 39 40 39 37 35 31 30 32 30 28 33 33 33 33 35 36 34 33 31 32 26 29 27 25 25 25 24 22 23 24 24 24 23 25 27 30 33 34 34 33 31 28 27
40 35 33 32 32 26 23 22 27 29 33 32 32 31 32 33 32 31 30 27 27 29 25 25 25 24 23 23 23 23 24 24 23 24 26 30 31 32 32 32 30 28 26 24
32 29 25 25 24 25 25 27 30 31 32 32 31 30 30 32 30 31 27 29 28 24 21 21 22 21 21 23 25 25 24 25 24 24 27 30 30 30 26 25 23 22 22 23
30 29 22 24 27 28 29 29 30 32 33 32 31 29 30 29 27 29 28 25 21 22 21 25 24 23 24 25 26 26 27 26 25 25 27 28 28 25 22 21 24 25 24 23
28 26 23 26 26 27 27 27 29 32 31 30 29 24 22 22 26 24 23 21 15 15 27 27 23 23 24 25 28 29 28 26 25 25 26 27 25 23 23 25 25 25 26 26
24 23 26 26 27 26 27 28 29 32 29 23 26 21 17 22 22 21 22 16 18 23 25 25 23 24 25 26 28 30 30 28 27 25 27 29 24 24 22 21 25 25 26 27

GFSNW_sfc_30mbdewp_003.txt.gz
Dewpoint
53 52 52 51 52 47 47 46 37 48 49 40 36 32 29 29 29 31 31 30 28 29 30 30 28 27 30 31 31 30 33 31 30 29 29 27 27 28 28 26 25 27 28 27
53 52 52 51 51 48 48 38 37 47 49 41 39 33 33 33 31 32 31 32 33 33 32 31 30 31 34 33 31 33 33 32 28 24 27 28 28 27 27 28 29 29 28 27
53 53 52 52 51 50 47 39 39 41 41 40 35 34 34 34 36 34 34 34 35 33 33 33 32 32 33 35 34 36 35 32 31 27 27 29 28 28 28 29 30 30 30 29
53 53 53 52 52 51 48 36 38 38 39 39 37 36 34 34 35 36 35 34 34 33 33 33 30 32 32 34 35 36 36 32 31 31 30 29 28 28 28 26 28 28 29 27
53 52 53 52 52 51 44 40 39 40 37 36 34 35 33 32 33 32 32 33 34 34 33 33 32 33 33 33 33 35 35 34 34 32 31 30 29 28 27 27 27 27 27 27
53 52 52 52 52 51 42 42 40 45 38 36 34 33 31 31 33 36 34 34 34 35 36 36 36 37 37 35 35 35 36 36 34 29 30 32 29 31 30 29 27 26 25 27
53 52 52 52 52 50 49 45 42 41 39 39 34 33 33 33 36 36 36 37 37 38 40 40 39 38 35 35 35 35 37 36 33 30 32 24 24 26 25 25 25 26 26 25
52 52 52 52 52 50 51 48 45 46 38 40 37 36 35 35 37 38 37 37 38 43 40 39 36 35 36 32 32 33 34 37 32 30 28 27 28 25 26 26 26 26 27 30
52 52 52 51 51 51 52 51 50 46 39 40 38 36 37 37 38 38 41 40 43 42 41 38 32 27 28 25 25 32 33 39 34 33 28 24 24 27 28 28 24 32 33 33
52 51 51 51 51 52 53 51 54 48 47 45 41 38 39 40 39 38 40 40 42 42 40 35 32 31 29 29 30 33 34 33 31 30 29 28 29 29 29 25 27 35 36 35
52 51 51 51 50 51 53 52 55 50 47 45 45 43 42 41 41 38 39 39 41 41 36 35 35 34 32 30 29 28 29 32 31 32 29 27 29 29 32 36 37 36 37 37
51 51 51 50 50 50 52 53 55 54 50 46 50 46 44 43 41 40 41 39 37 41 38 38 38 35 35 34 29 32 28 31 31 31 30 31 34 33 35 35 35 38 39 37
50 50 50 51 50 50 51 53 54 52 46 47 48 46 47 47 46 45 43 44 42 40 40 40 39 35 37 32 32 35 36 36 34 35 34 33 33 36 38 38 39 36 37 37
50 50 50 50 50 50 50 51 53 52 45 40 42 48 47 47 46 46 45 44 44 43 44 42 38 35 39 36 35 35 35 37 36 36 36 35 37 38 35 37 36 35 37 37
50 50 50 50 50 50 50 51 53 53 47 40 40 44 45 45 44 45 45 45 44 45 43 39 37 40 38 38 38 36 37 36 35 34 38 38 36 33 33 34 37 37 35 30
49 49 49 50 50 50 48 43 48 51 52 44 37 42 42 42 43 43 45 45 45 45 43 40 41 41 39 35 33 37 37 37 39 39 40 38 34 33 34 36 35 27 25 25
48 48 49 49 49 49 45 41 46 50 50 40 37 35 39 38 41 43 42 44 45 44 42 40 40 38 40 36 32 35 34 36 34 35 36 31 33 34 35 29 25 25 24 25
47 47 47 48 48 47 43 46 48 49 43 40 33 33 36 38 39 39 42 41 41 42 40 41 38 37 38 33 34 30 28 27 26 26 30 34 34 31 25 24 23 25 27 31
46 46 45 44 42 39 41 46 47 47 41 32 31 31 31 37 38 38 39 39 34 40 38 37 33 34 32 31 27 27 26 26 31 33 32 28 25 25 23 23 24 29 32 35
44 42 39 36 41 44 45 42 38 36 36 35 32 36 33 36 36 34 35 36 32 30 33 34 33 30 30 29 28 27 30 31 28 26 25 25 24 24 24 25 29 33 34 34
40 38 37 42 43 42 38 33 32 33 31 32 34 36 33 38 33 32 35 32 33 28 24 29 30 27 26 26 28 29 26 25 24 24 24 24 24 24 26 29 31 34 34 32
39 40 42 41 38 35 31 30 32 31 28 32 33 33 33 36 38 35 35 31 32 26 32 28 25 23 25 25 24 23 23 24 24 25 25 24 24 26 32 33 32 34 32 29
39 36 34 34 33 26 23 22 27 29 34 33 33 31 32 34 34 31 30 28 28 32 28 26 26 27 22 19 19 20 20 25 27 26 27 27 26 30 33 34 35 31 30 27
33 30 25 27 25 23 23 24 31 31 33 33 32 30 29 33 30 30 26 28 29 25 20 17 20 20 19 21 22 24 23 26 27 28 29 28 29 32 32 29 28 24 25 25
31 30 22 24 27 31 32 33 33 33 33 33 30 30 28 26 26 28 26 24 21 20 15 19 22 24 24 24 24 23 27 30 30 29 30 28 29 31 30 27 26 28 26 25
31 30 26 28 28 28 29 29 30 34 33 32 30 25 23 20 23 22 20 16 7 13 19 23 21 20 22 23 25 27 27 29 30 30 30 29 31 29 31 30 28 27 28 28
27 25 27 30 29 29 29 31 30 31 30 22 24 20 16 13 16 15 14 12 19 22 23 23 21 22 24 26 26 26 28 30 30 31 32 30 30 31 29 25 27 28 29 29

GFSNW_sfc_30mbdewp_006.txt.gz
Dewpoint
53 52 52 52 51 49 47 48 41 49 51 43 39 33 29 29 29 31 31 31 30 30 30 30 28 28 31 32 31 31 35 32 31 30 30 28 26 27 28 27 29 29 29 28
53 53 52 52 52 50 48 39 40 49 51 42 39 33 32 32 30 32 31 32 33 33 32 32 32 32 35 34 31 34 34 32 28 25 27 29 29 28 28 28 31 29 30 29
53 53 53 52 52 51 50 40 39 43 42 39 35 33 33 33 36 34 34 33 34 33 32 33 32 31 34 36 35 36 35 32 30 29 29 30 29 29 29 28 27 28 28 28
53 53 52 52 52 51 52 38 38 39 41 38 37 36 33 33 34 35 34 33 33 32 33 33 30 31 33 34 36 35 35 33 32 32 31 31 31 30 29 28 27 26 27 26
53 53 53 52 52 51 49 43 40 39 36 35 34 34 32 31 32 31 32 32 32 33 32 33 32 34 34 34 34 34 36 34 35 33 33 31 29 31 30 28 27 27 27 26
53 53 52 52 52 52 44 42 41 47 39 37 35 35 31 31 32 36 33 34 34 34 36 38 38 38 37 37 36 36 36 36 34 30 31 31 29 29 29 29 27 26 25 26
53 52 52 52 52 51 53 49 45 40 39 40 35 33 32 32 33 35 36 35 34 37 40 40 40 40 37 35 34 34 34 36 34 31 31 24 25 28 27 27 28 28 26 26
53 52 52 52 51 52 53 49 47 47 36 41 37 36 35 34 35 35 35 35 41 43 39 39 35 34 37 33 31 32 33 37 34 30 29 28 29 28 27 27 28 28 31 34
53 52 52 52 51 52 53 51 51 48 38 39 38 36 36 36 38 39 39 40 41 42 42 38 31 26 28 25 26 34 36 39 36 33 28 24 26 28 29 30 27 37 37 37
52 52 52 51 51 51 53 54 55 49 47 47 44 38 39 39 39 38 41 41 42 41 40 34 32 31 28 25 29 30 34 35 31 31 29 29 31 30 33 29 33 39 40 40
52 52 52 51 51 51 52 52 55 52 47 46 45 45 42 40 40 40 41 39 41 41 37 34 33 33 33 30 29 28 27 29 30 32 29 26 31 33 34 35 39 39 41 40
52 52 51 51 51 50 51 51 55 55 51 47 52 50 49 45 43 43 42 40 39 42 39 38 37 34 36 33 29 30 28 30 29 30 29 31 33 34 37 38 39 40 40 38
51 51 51 51 51 50 51 52 55 53 47 48 48 46 48 49 48 48 44 45 43 41 42 41 39 35 38 32 34 34 35 34 33 33 32 33 35 37 38 39 39 40 40 39
50 50 50 50 50 50 51 51 53 52 45 41 43 48 47 48 48 48 48 47 46 46 45 42 39 36 39 35 34 34 35 35 34 34 35 35 37 38 38 39 39 40 39 38
50 50 50 50 50 50 51 52 53 54 48 41 40 43 45 46 46 45 46 46 46 46 44 41 38 40 38 39 37 36 36 35 34 33 35 38 37 38 38 37 40 38 30 26
49 49 50 50 50 50 49 44 49 52 52 44 38 43 42 43 43 43 44 46 46 46 43 41 41 42 38 35 33 34 35 34 36 35 35 35 36 35 37 38 36 27 24 26
48 48 49 49 49 49 45 42 46 50 51 41 38 38 40 40 42 42 42 44 44 45 44 42 41 39 41 36 33 36 36 35 34 34 34 35 34 35 35 29 25 25 28 31
48 48 48 48 48 47 43 46 48 49 44 40 36 34 36 39 40 40 42 42 41 42 41 40 38 38 38 34 34 34 32 30 29 32 33 31 28 27 25 24 25 26 29 32
46 46 45 44 42 40 42 47 46 46 40 35 32 32 32 38 39 38 38 39 34 39 37 37 37 35 33 34 32 30 30 29 32 31 27 26 25 24 24 24 25 28 31 33
44 43 39 36 41 46 45 41 37 37 36 35 31 37 34 36 37 35 35 36 32 30 34 36 35 33 34 33 31 29 30 26 25 25 25 24 24 24 24 24 26 32 32 32
41 39 37 42 43 43 39 33 31 32 30 32 34 36 34 38 33 33 35 32 33 27 29 29 29 28 28 28 28 27 24 24 23 23 22 23 24 24 25 27 32 33 33 33
40 40 42 42 39 35 31 30 32 31 29 35 34 34 35 37 38 34 34 30 31 25 31 29 25 23 24 26 25 22 21 20 21 23 21 20 21 26 29 31 34 33 33 32
39 37 34 34 33 27 26 24 28 29 33 33 34 32 34 35 35 32 30 28 25 33 28 24 25 26 26 22 20 21 22 27 26 22 21 24 27 30 30 30 34 33 32 31
34 31 24 28 26 25 25 27 30 32 33 34 33 31 32 33 29 30 25 27 30 25 22 20 23 23 23 24 25 25 24 26 25 27 30 31 31 31 31 32 32 29 24 28
30 30 22 26 27 33 32 33 33 34 34 32 32 30 29 27 26 27 26 23 20 21 16 19 26 26 25 24 25 23 27 27 27 27 28 31 32 32 31 32 29 27 27 25
32 30 27 30 29 29 30 30 31 35 33 32 31 26 22 20 23 21 20 19 12 12 22 26 24 25 25 23 22 27 28 28 28 27 30 31 32 32 32 32 32 30 28 27
28 26 30 32 30 30 30 30 32 34 29 24 24 20 18 17 18 15 15 14 19 23 25 24 25 25 25 23 24 26 27 28 28 29 31 32 34 34 32 30 31 28 29 29

GFSNW_sfc_30mbdewp_009.txt.gz
Dewpoint
53 53 52 52 52 51 51 51 43 49 53 45 45 34 30 29 30 31 31 33 33 31 32 31 31 32 33 33 32 34 34 32 30 29 31 32 27 30 29 28 30 30 30 29
53 53 52 52 52 51 47 47 46 52 51 39 35 32 33 36 34 33 33 33 33 33 33 32 33 33 35 33 34 33 34 30 27 24 28 32 31 31 32 31 30 27 27 27
53 53 52 52 52 51 51 47 35 45 46 44 35 33 33 34 36 34 34 34 34 34 33 34 31 31 35 36 35 36 35 33 30 26 28 32 30 31 31 31 28 28 28 28
53 53 52 52 52 51 53 45 39 40 38 38 37 37 34 34 35 35 34 34 33 33 32 33 33 35 36 37 37 35 35 32 33 33 33 32 30 30 30 30 29 28 28 28
53 53 52 52 51 51 49 43 44 44 38 36 36 34 33 32 31 31 34 32 35 35 34 36 36 37 37 36 36 37 38 33 35 33 34 34 31 31 31 30 30 29 29 27
53 53 52 52 51 53 51 46 45 48 41 37 35 36 33 33 34 36 34 35 35 34 38 39 40 40 39 38 37 36 36 35 33 30 33 32 29 26 28 29 28 28 27 31
53 52 52 52 51 52 54 50 49 35 34 39 37 36 33 33 35 35 36 36 35 41 42 41 40 38 38 39 36 37 33 34 34 32 31 25 26 29 27 28 29 31 36 37
53 52 52 52 51 51 52 53 50 40 34 45 40 37 36 36 37 37 36 37 43 43 42 36 32 30 32 28 32 37 37 34 32 30 28 28 29 29 29 28 28 38 36 38
53 53 52 52 51 51 52 54 53 46 37 37 42 38 39 38 37 37 39 44 43 42 40 36 29 24 26 25 27 37 37 37 32 30 26 22 25 30 37 35 29 38 39 40
52 52 53 52 51 51 52 52 56 51 44 45 44 40 40 41 39 38 40 41 41 43 38 32 30 29 31 25 26 27 30 32 29 28 27 28 30 30 37 27 30 39 39 39
52 52 52 52 51 51 51 52 55 52 47 47 46 46 44 44 42 39 41 38 39 40 36 34 32 31 32 31 29 26 27 27 29 30 28 24 33 31 29 32 37 35 38 40
52 52 52 52 51 51 52 50 55 55 50 48 52 51 51 49 47 45 43 40 41 40 37 36 34 34 36 32 29 31 28 28 26 29 27 32 33 32 34 35 36 39 39 40
51 52 52 52 51 51 51 52 54 51 47 46 47 44 47 50 49 49 43 44 43 43 41 39 37 35 37 32 33 33 34 35 32 31 32 32 34 35 36 37 39 41 41 40
51 51 51 51 51 51 51 50 53 51 45 42 41 47 46 48 48 48 49 46 47 47 46 42 39 37 40 36 36 34 36 37 34 34 34 34 35 35 37 40 42 41 37 36
50 50 50 50 50 50 51 51 52 53 48 41 40 44 45 46 47 46 47 47 47 46 42 41 38 39 38 38 37 36 37 35 34 32 34 36 36 37 38 38 35 33 32 30
49 50 50 50 50 50 49 44 50 53 53 45 39 42 42 43 43 43 44 46 46 45 42 40 41 41 38 35 33 35 35 36 37 36 37 37 38 37 38 35 30 28 30 33
48 49 49 49 49 49 46 42 45 50 51 43 39 37 40 40 41 43 43 44 44 44 43 41 41 40 41 36 34 36 36 37 37 37 37 36 34 29 26 26 26 27 33 32
48 48 48 48 48 47 44 46 48 49 44 41 38 35 36 40 39 39 41 40 40 42 42 39 39 39 39 34 36 36 36 35 34 33 31 29 27 26 25 25 26 26 32 32
47 47 47 44 42 40 42 46 46 45 41 37 33 32 33 39 39 38 38 38 35 38 36 37 38 35 33 36 35 34 33 32 28 27 27 27 27 26 26 25 25 29 32 30
45 44 39 36 40 46 45 41 37 37 35 34 32 36 34 37 37 35 34 35 32 30 32 37 35 33 34 33 33 33 26 26 27 26 25 24 23 24 24 25 27 31 32 30
42 37 37 42 45 42 38 32 32 32 30 32 33 35 35 39 34 32 34 31 32 27 28 32 29 29 29 30 30 27 25 26 25 25 22 20 20 21 23 26 29 30 32 31
41 41 43 42 39 35 31 29 31 30 28 33 32 33 36 36 39 33 33 29 30 23 30 28 24 27 26 26 24 25 25 25 25 23 22 22 23 24 27 29 29 31 33 32
40 35 34 33 33 27 25 24 28 28 33 34 34 32 33 35 34 32 29 27 25 31 27 23 24 27 26 26 26 26 27 25 24 24 25 26 27 29 29 30 30 31 31 31
32 29 21 26 24 25 27 28 30 32 34 33 33 32 31 31 28 28 24 26 29 25 21 22 25 27 27 26 26 25 23 24 24 25 27 27 27 28 29 30 31 31 29 28
28 28 20 25 30 31 31 33 32 33 34 33 29 29 29 28 26 27 25 22 19 21 19 24 25 26 25 25 22 21 21 24 26 27 27 27 27 28 30 31 31 30 28 28
30 28 26 28 28 28 29 30 32 35 31 30 30 26 22 21 23 22 20 19 17 20 24 25 25 25 25 24 25 23 24 27 26 26 26 27 28 29 31 32 31 30 29 29
26 26 29 31 29 29 30 29 30 33 28 24 25 19 15 21 19 19 21 18 18 24 23 24 23 23 23 24 23 23 25 25 23 23 25 28 29 31 31 29 30 31 30 29

GFSNW_sfc_30mbdewp_015.txt.gz
Dewpoint
52 52 52 51 51 50 52 46 30 43 50 38 37 29 28 31 33 34 33 34 33 33 32 32 32 32 32 33 34 31 34 31 26 27 31 33 31 31 30 27 26 29 27 25
52 52 52 51 51 51 48 43 42 48 44 34 30 33 34 36 33 34 33 33 34 35 33 31 33 33 35 33 34 33 33 29 24 22 25 28 30 31 32 31 30 27 24 23
52 52 51 50 51 51 50 38 33 40 42 41 32 32 33 33 36 35 34 34 35 34 33 33 32 34 37 38 36 36 35 31 27 22 23 29 29 31 32 31 28 27 27 27
52 51 50 50 51 52 46 40 35 40 35 36 36 36 35 33 32 34 35 35 34 33 31 32 35 36 36 36 37 36 34 31 31 31 31 32 32 32 33 32 32 30 29 30
52 50 50 50 51 52 43 41 38 40 39 39 34 34 33 35 33 34 34 34 35 35 33 33 34 36 35 34 36 36 37 31 34 32 33 34 32 33 33 33 33 32 30 28
51 50 51 50 51 51 45 47 46 37 37 35 32 33 33 32 34 35 35 36 34 32 36 39 39 39 38 37 36 35 35 33 32 26 32 31 24 27 30 30 28 28 27 29
51 50 51 50 50 52 49 49 40 33 33 34 33 37 34 34 34 35 36 35 33 37 41 39 37 35 33 34 35 38 33 33 32 28 31 23 23 29 29 29 29 30 33 36
51 50 51 50 50 53 52 51 41 35 34 39 40 37 36 36 37 37 36 40 39 40 36 34 31 26 22 28 37 37 35 33 30 29 27 27 27 26 28 28 29 35 35 36
52 52 52 51 50 51 53 52 44 39 34 35 41 38 38 36 35 36 41 43 43 39 34 32 29 23 25 25 27 36 35 33 31 28 25 23 23 26 35 36 29 36 37 34
52 52 52 52 51 51 51 52 51 46 38 42 45 38 36 39 38 36 39 41 40 39 35 32 30 28 30 25 24 25 30 31 29 28 26 26 28 29 31 26 24 35 35 35
52 52 52 52 51 51 51 52 53 47 42 45 47 46 42 42 40 37 39 39 38 38 35 32 30 28 29 31 28 26 25 24 25 26 25 23 30 32 29 31 33 35 36 38
51 51 52 52 52 51 51 50 53 51 46 44 51 50 50 48 44 41 40 39 37 38 36 34 31 31 30 29 28 30 28 28 26 27 26 30 32 33 34 35 35 36 40 39
52 52 52 52 52 51 51 50 51 48 44 44 44 43 46 50 50 47 43 40 42 40 39 36 35 34 33 31 31 32 34 35 32 32 32 31 34 36 36 37 39 40 39 36
52 52 52 52 52 51 51 49 50 47 44 41 40 44 45 48 50 49 47 45 45 45 41 38 37 36 38 35 36 36 37 38 36 35 36 37 36 37 39 41 40 37 37 36
51 51 51 51 51 51 50 50 52 51 47 41 40 43 44 45 47 46 47 46 45 44 41 40 38 38 38 38 36 36 38 36 34 34 36 36 36 41 42 37 36 35 33 31
50 50 50 50 50 51 50 46 50 51 51 45 40 43 43 43 44 45 46 47 46 44 41 39 39 40 38 35 33 35 36 38 38 37 38 39 41 38 37 34 32 33 33 31
49 49 50 50 50 50 47 44 45 51 51 44 40 39 39 39 40 41 42 43 43 43 41 40 39 39 40 37 34 36 37 38 38 39 39 38 35 34 35 31 33 33 32 30
49 49 49 49 49 48 46 46 48 50 47 43 39 36 37 39 37 38 39 39 39 40 41 39 38 39 39 35 37 37 37 37 37 36 35 34 34 30 24 23 23 23 27 28
48 48 47 45 44 42 42 46 46 45 44 39 35 34 34 40 38 37 37 37 36 37 36 37 38 36 34 36 36 35 36 35 33 28 28 28 23 21 22 22 19 20 23 27
46 43 40 37 40 46 45 41 40 40 36 36 33 35 35 38 37 36 36 34 33 31 33 36 34 32 34 29 31 30 29 30 30 29 31 27 22 23 23 22 21 24 26 28
39 38 36 41 45 40 37 34 34 33 32 32 33 34 34 38 35 34 35 32 31 26 26 30 28 27 26 27 28 29 28 29 29 29 28 27 23 22 24 26 26 26 27 28
39 41 42 41 37 34 33 31 31 30 28 32 31 33 36 35 37 34 31 29 29 23 27 28 24 25 27 29 30 29 27 27 26 26 25 25 26 27 28 27 25 26 27 27
36 35 35 33 31 28 27 25 26 27 30 33 33 32 33 34 34 31 29 26 23 29 26 23 22 27 28 26 27 26 25 24 22 20 22 24 25 27 27 26 25 25 25 26
25 26 27 26 24 25 25 25 26 31 33 33 33 31 29 29 27 27 23 23 26 23 20 20 25 25 25 24 23 22 21 22 21 21 22 23 24 24 24 24 23 23 24 28
22 20 15 23 26 29 31 32 32 33 34 31 30 29 27 26 25 25 23 22 19 19 19 22 24 23 22 22 23 23 23 23 23 24 24 24 24 24 24 24 24 24 25 29
25 25 24 27 27 27 29 31 31 33 30 28 25 22 20 22 21 20 19 18 15 17 21 22 23 23 23 23 23 23 24 24 25 25 25 25 25 24 25 25 25 26 27 31
22 21 27 26 26 25 27 29 30 32 26 14 22 12 6 18 18 17 20 18 18 21 19 22 24 24 23 23 24 24 25 25 25 26 26 26 26 26 25 25 26 27 28 29

GFSNW_sfc_30mbdewp_021.txt.gz
Dewpoint
52 52 50 50 50 50 47 37 37 46 48 32 33 28 28 32 33 35 34 33 33 32 33 32 32 32 31 34 34 32 33 30 23 24 32 33 32 29 28 21 22 28 28 23
52 51 50 50 51 51 46 41 42 45 42 29 31 34 34 34 33 34 33 33 34 35 33 31 33 33 36 36 34 33 33 28 16 11 27 29 31 31 30 29 29 27 24 21
52 50 50 50 51 51 43 38 37 40 39 37 33 32 33 34 36 34 36 35 35 33 32 35 33 34 37 37 37 36 35 31 22 13 15 25 27 30 31 31 29 26 26 25
51 50 50 50 51 51 42 38 38 39 32 34 34 33 33 33 32 34 36 34 33 32 31 33 34 36 34 35 37 37 35 29 31 30 30 31 31 31 32 31 31 29 27 28
50 49 49 50 51 50 43 37 39 39 37 36 34 33 33 33 34 33 34 33 34 33 30 30 31 34 34 31 36 35 36 30 32 30 32 31 29 30 31 32 32 32 32 31
50 49 50 50 52 48 44 46 43 39 36 32 32 32 34 34 34 36 36 35 33 32 35 36 37 37 37 36 34 34 34 33 31 21 29 29 21 22 28 30 32 30 26 26
50 50 50 50 52 50 47 46 38 34 35 32 33 35 34 34 34 34 36 34 32 35 40 37 35 31 32 33 36 37 34 33 31 28 28 19 21 29 29 28 28 29 29 30
50 50 51 50 51 52 48 44 37 33 34 36 38 35 36 37 37 36 37 41 39 39 36 34 31 28 22 30 36 36 36 34 29 27 26 27 27 25 26 26 26 29 30 34
51 51 51 50 51 52 51 49 42 36 31 34 38 36 36 34 35 38 41 42 41 37 34 33 27 18 23 24 27 34 33 32 31 28 25 22 24 26 36 33 25 32 35 34
52 52 52 51 50 51 52 51 49 39 32 39 40 36 36 37 36 35 38 41 39 38 35 32 30 28 28 24 23 24 29 30 29 28 26 28 30 30 30 26 27 35 36 35
52 52 52 51 51 50 52 51 50 43 38 43 45 43 38 39 37 35 39 39 38 37 35 34 32 30 29 29 27 25 23 24 25 26 25 22 29 31 28 30 33 35 36 37
52 52 52 52 51 50 50 49 50 48 42 41 48 50 48 44 41 39 40 36 37 39 35 33 31 30 28 28 26 30 27 27 26 28 28 30 31 31 33 35 37 37 38 37
51 51 51 52 51 51 50 49 49 45 41 41 43 43 46 49 48 44 40 39 39 39 38 34 33 33 31 30 30 31 32 33 31 30 32 33 34 36 40 41 38 38 37 36
51 51 51 52 52 51 50 48 47 45 42 38 39 43 42 46 49 48 46 43 42 40 39 36 36 35 35 33 33 32 33 36 35 34 36 36 37 41 39 37 35 32 29 29
52 52 52 52 52 51 50 50 50 48 43 38 38 43 43 43 46 48 47 44 44 42 40 38 37 37 37 37 36 35 38 37 35 33 36 38 38 38 37 34 30 29 30 31
51 51 52 52 51 51 50 45 49 51 48 40 35 41 41 40 42 44 45 46 44 44 41 39 39 40 38 35 32 36 38 39 38 37 40 39 37 36 35 30 30 27 26 22
50 51 51 51 51 51 47 44 44 51 48 42 38 38 38 38 40 41 42 44 44 44 41 39 39 39 40 36 33 37 37 37 34 36 38 36 36 33 32 25 22 22 21 21
50 50 50 50 49 48 47 46 48 50 45 43 37 36 37 38 36 37 39 38 39 40 40 37 38 38 38 35 34 31 32 29 28 27 29 30 28 26 25 25 23 23 23 23
49 49 48 47 45 44 44 46 47 45 44 40 36 35 32 40 36 36 36 37 36 37 36 36 37 35 34 30 29 29 31 31 28 29 27 25 21 21 25 25 24 23 24 25
47 46 42 38 40 46 46 43 42 40 37 36 36 36 36 39 36 35 36 35 34 31 33 34 33 32 28 29 29 28 29 30 29 23 15 18 20 23 26 25 24 25 25 26
42 38 36 41 45 41 38 35 35 33 32 33 33 34 34 38 35 35 35 33 32 27 27 29 29 29 27 29 28 27 26 26 26 26 26 27 25 24 24 24 25 26 26 26
42 41 42 40 37 35 32 31 31 31 30 32 32 33 35 35 37 35 32 30 29 24 28 27 24 26 29 28 25 25 26 24 22 22 22 22 23 24 24 24 24 25 25 25
40 37 33 33 31 30 28 26 27 28 30 32 33 31 33 34 34 31 30 26 24 27 24 22 23 27 29 27 27 21 22 21 21 22 23 24 24 24 24 24 25 25 25 25
31 33 29 28 27 27 27 25 26 30 32 33 32 30 30 29 29 27 25 24 25 22 20 19 25 28 26 26 23 22 18 19 20 22 23 24 24 24 24 24 24 24 25 26
21 23 25 25 25 29 29 32 32 32 33 32 30 28 27 26 25 25 23 21 19 19 18 22 27 25 24 23 23 21 19 20 22 24 24 24 24 24 24 25 26 26 25 25
22 24 22 26 26 27 30 31 31 33 30 27 25 24 25 24 23 21 20 18 15 16 21 25 24 23 22 21 21 21 22 23 24 25 25 25 25 25 25 26 26 25 26 26
18 21 26 24 24 26 27 29 31 31 27 23 20 16 16 19 19 19 20 18 17 20 19 21 23 21 20 21 22 22 23 24 25 25 26 26 26 25 25 25 26 27 28 28

GFSNW_sfc_30mbdewp_024.txt.gz
Dewpoint
52 50 50 50 51 50 51 45 36 51 53 37 36 31 30 33 34 35 35 34 33 32 33 32 32 31 32 35 35 29 34 30 21 20 30 33 31 29 27 25 24 27 25 19
51 50 50 50 51 51 48 43 44 48 48 37 37 35 35 35 33 34 33 34 35 36 34 32 33 33 37 36 35 33 33 28 16 18 27 31 29 30 30 28 30 25 24 20
50 50 50 51 51 50 47 42 42 42 40 39 34 33 34 34 36 36 36 35 35 34 34 35 34 34 37 39 37 36 36 30 19 12 14 21 20 22 26 27 28 24 23 22
50 49 50 51 51 50 46 42 42 43 40 37 35 35 34 33 33 36 36 34 34 33 33 33 34 35 36 36 37 38 35 27 28 26 26 25 26 26 25 26 27 26 25 22
50 49 49 50 51 48 46 42 43 42 40 39 35 36 34 32 34 33 33 33 34 31 30 27 31 31 32 29 36 36 37 31 33 30 28 27 27 26 26 27 28 27 27 27
49 49 50 50 51 49 47 48 44 45 38 38 37 35 34 33 35 37 37 35 34 34 34 35 38 38 37 35 33 35 36 35 32 26 28 28 26 26 25 27 27 28 26 25
50 50 50 51 51 51 49 48 42 43 38 38 36 35 36 35 35 36 37 36 34 38 41 39 38 35 36 37 38 38 37 36 34 31 30 22 26 27 27 27 27 26 26 27
50 50 50 50 50 50 48 45 43 42 36 39 38 37 37 38 39 38 37 41 41 42 40 38 32 31 26 32 35 36 38 37 31 29 26 24 25 25 26 26 27 29 30 32
50 51 51 50 51 52 51 50 45 43 37 39 38 37 38 38 39 39 42 43 42 41 41 37 26 24 24 23 29 35 35 36 35 29 26 21 23 27 33 32 25 33 34 35
51 52 51 50 50 52 53 52 51 43 39 41 41 39 38 40 40 40 42 42 42 42 38 33 30 31 29 24 25 27 32 32 31 29 28 28 29 30 31 28 30 35 35 37
52 52 52 51 50 51 53 52 52 48 43 43 46 43 41 40 40 40 42 41 42 40 36 35 35 33 33 30 28 29 27 30 29 30 27 26 30 31 31 34 36 36 38 39
52 52 52 51 51 50 52 50 52 52 47 45 50 51 48 47 42 41 44 40 41 42 40 37 36 32 33 34 28 31 27 29 27 28 27 30 32 32 35 38 39 40 38 35
51 51 52 52 51 50 52 51 51 49 46 45 47 46 48 50 49 47 43 44 43 42 43 41 39 32 36 31 32 31 32 33 32 32 31 31 34 36 40 40 38 38 37 36
51 51 51 52 51 50 52 52 50 48 44 37 43 44 44 46 50 49 48 45 44 44 43 38 37 36 38 36 35 33 33 33 32 32 34 36 37 40 39 36 36 33 28 25
51 51 51 52 51 51 53 53 52 51 47 39 42 45 44 44 47 48 48 46 46 44 40 39 39 41 38 38 37 35 35 33 34 34 37 39 38 37 37 33 27 23 23 22
51 52 52 52 51 52 52 47 52 53 51 41 37 44 43 42 45 47 47 47 47 46 43 40 42 42 38 35 34 36 37 38 39 38 40 39 36 36 32 25 24 22 22 20
51 51 52 52 51 53 48 45 48 51 51 41 37 38 41 40 42 42 43 46 46 45 43 40 41 40 40 36 33 38 34 33 34 39 37 35 36 32 27 24 23 21 18 18
50 51 51 50 49 48 49 49 50 51 46 44 36 37 39 40 39 38 41 40 41 41 41 38 39 39 39 35 36 32 31 30 29 31 35 35 29 26 25 20 17 17 15 16
50 49 49 48 47 45 45 46 47 47 45 39 38 35 32 40 38 38 38 39 36 38 37 36 37 35 34 34 31 31 31 31 30 28 26 22 19 15 15 15 15 17 18 18
48 47 45 39 41 46 46 45 44 42 38 37 37 38 36 40 37 36 37 36 35 32 33 34 33 33 29 30 31 31 30 30 30 26 14 14 16 15 17 18 19 20 20 23
42 38 36 42 45 41 38 37 37 35 33 34 34 35 35 38 35 35 35 33 33 29 31 32 31 29 30 29 26 25 24 22 18 18 17 17 18 19 20 21 21 23 25 26
42 41 41 40 37 34 33 32 31 32 31 32 32 34 35 35 37 34 32 32 31 27 30 29 26 28 29 27 24 25 25 19 17 16 17 18 21 23 24 24 24 26 27 28
41 34 33 32 31 30 29 27 28 29 32 33 33 31 33 34 35 32 32 29 28 29 26 24 25 28 29 26 22 21 20 21 22 17 19 21 24 25 26 26 27 28 28 28
33 32 28 30 28 29 30 31 31 32 34 34 34 31 32 32 31 30 28 27 27 24 22 23 26 29 29 26 24 21 18 19 21 21 22 26 26 26 27 27 27 27 27 28
31 31 27 28 28 31 31 32 33 33 35 34 32 31 32 29 27 28 26 24 22 22 22 25 28 29 26 24 24 22 25 24 23 22 25 27 27 27 27 28 29 29 29 28
28 27 26 28 29 29 31 32 31 33 32 31 31 28 28 26 27 24 23 21 19 22 26 29 28 25 24 22 20 21 21 22 22 24 26 27 28 28 28 28 29 29 29 29
24 26 29 29 30 31 31 33 33 32 29 28 26 24 23 24 23 22 23 22 24 26 28 25 24 23 20 20 22 24 25 24 24 25 26 27 28 29 28 29 28 28 28 28

GFSNW_sfc_30mbdewp_027.txt.gz
Dewpoint
50 50 50 50 51 51 52 43 34 52 53 31 30 32 30 31 31 34 32 31 29 29 29 29 29 29 32 34 32 27 29 26 21 17 25 29 27 26 25 23 21 24 26 22
50 50 50 51 51 50 48 37 41 50 51 34 32 35 33 32 32 31 32 33 33 34 31 30 31 32 37 34 33 32 31 27 20 18 26 30 26 25 26 25 28 22 20 21
50 50 50 51 51 49 51 40 40 40 42 39 30 32 31 33 36 34 34 34 34 33 32 32 33 33 36 38 36 35 35 26 21 18 17 19 19 20 20 21 24 25 23 21
50 50 50 51 51 49 49 40 41 42 37 36 34 33 32 31 31 34 34 33 32 31 31 31 32 33 36 36 36 35 33 29 25 25 22 20 20 21 22 21 21 23 23 23
50 49 49 51 51 48 46 37 41 42 41 37 35 35 32 30 32 31 31 31 31 31 32 27 29 29 28 28 34 33 34 31 32 28 24 20 19 21 22 22 23 24 24 23
50 49 50 51 51 50 43 46 46 43 40 37 35 34 32 31 34 37 32 32 30 31 31 34 35 36 34 32 31 33 34 35 31 28 30 28 27 27 21 22 24 24 24 26
50 50 50 51 49 51 48 48 43 49 39 37 35 34 33 33 33 34 34 34 34 39 39 37 36 35 35 35 36 37 39 35 36 32 30 22 21 23 24 23 24 25 25 26
50 50 50 50 49 50 48 45 44 46 41 38 37 35 33 37 37 36 37 40 40 40 37 36 33 32 28 33 33 34 36 37 33 31 25 22 23 26 26 26 26 27 29 31
50 51 50 50 51 51 49 49 49 46 39 42 37 38 38 38 39 40 42 43 43 43 42 38 24 26 23 24 31 34 35 38 35 31 28 21 22 25 30 29 25 32 34 33
51 52 51 50 50 52 52 51 54 43 46 43 40 40 39 39 38 40 41 42 42 43 41 34 31 31 27 22 25 31 33 34 32 30 28 27 26 30 31 27 31 36 36 39
52 52 51 50 50 51 52 52 53 50 45 44 45 43 41 41 39 42 42 41 43 44 37 37 37 36 33 30 25 31 30 32 30 32 28 26 30 30 32 35 37 40 39 38
52 52 52 51 50 50 51 47 52 52 45 47 51 50 49 48 45 39 44 38 42 41 41 40 40 35 37 37 28 27 26 29 29 31 30 30 31 34 39 40 39 39 37 37
52 51 52 51 50 50 52 50 51 48 50 45 46 46 49 50 50 49 43 45 41 43 45 44 41 34 38 32 34 30 31 30 32 33 31 30 33 38 40 39 38 38 37 35
51 51 52 52 51 51 52 49 52 48 46 40 45 45 46 47 49 49 49 46 47 46 45 41 38 36 38 37 34 32 33 32 31 33 33 35 40 40 39 37 36 34 28 24
51 51 51 52 51 53 53 53 53 52 47 41 45 45 45 45 47 48 48 46 45 46 41 39 39 42 41 40 39 35 35 32 33 34 39 40 39 39 37 34 29 25 23 23
51 51 51 52 51 52 50 45 52 52 51 44 39 45 43 43 45 47 46 46 48 46 44 42 42 40 38 37 35 33 34 35 39 38 39 39 37 36 32 29 26 24 23 18
51 51 52 52 51 53 47 44 50 51 50 43 39 41 43 42 44 44 44 47 47 44 43 43 41 40 39 38 34 33 37 36 37 38 38 35 35 35 31 27 25 20 16 14
50 51 51 50 49 49 49 51 51 51 48 47 36 38 40 42 42 41 42 42 43 44 42 40 40 40 41 35 37 37 35 33 34 37 39 36 34 28 25 19 16 14 14 15
49 49 49 49 48 47 50 47 50 50 47 39 39 36 34 41 39 40 40 42 37 41 37 37 39 37 34 37 36 34 32 32 35 32 27 24 19 17 15 15 15 15 16 16
49 49 46 42 42 47 48 48 45 44 42 40 39 42 37 39 38 37 37 38 37 33 35 36 33 33 33 33 34 33 34 35 31 28 20 18 17 16 16 16 17 18 19 21
44 39 37 42 46 42 40 38 39 37 35 35 38 39 37 40 36 36 37 35 34 30 33 33 32 30 33 32 31 31 31 28 20 20 19 16 16 16 17 19 21 23 23 23
42 41 42 41 37 35 35 35 33 33 34 33 33 34 36 35 39 34 33 32 32 29 32 30 27 30 31 30 27 27 24 21 19 17 15 16 16 18 21 23 23 23 27 29
40 35 34 33 31 30 29 28 30 30 32 33 33 32 34 34 36 32 32 30 30 31 28 25 27 30 30 28 27 25 24 21 19 15 15 16 19 23 27 27 28 30 28 28
33 32 29 30 29 30 31 33 33 34 35 35 33 32 32 33 31 32 30 30 29 26 23 24 28 29 29 27 25 23 21 25 22 22 20 22 27 29 30 30 30 30 29 30
32 32 28 29 30 31 31 33 33 34 36 36 34 33 35 31 29 31 29 26 24 24 24 29 28 29 29 27 26 23 22 26 24 19 21 26 28 29 30 31 32 31 32 31
32 31 29 30 30 30 31 32 32 35 35 36 35 31 30 28 30 27 26 26 22 26 28 28 29 29 27 25 22 21 19 20 20 20 22 24 28 29 29 30 31 31 31 31
29 29 33 32 32 31 32 33 33 35 34 30 31 27 26 28 27 25 26 25 28 28 29 28 28 25 22 19 20 23 23 24 23 23 23 25 27 29 31 30 28 28 29 31

GFSNW_sfc_30mbdewp_030.txt.gz
Dewpoint
50 50 50 50 51 51 51 46 36 53 54 32 31 30 30 30 29 33 31 29 25 26 27 26 27 28 33 32 30 27 27 25 24 18 22 25 25 25 24 24 24 28 26 25
50 50 50 50 51 50 53 37 45 51 51 33 31 34 31 30 29 28 30 31 31 32 29 30 30 34 35 33 35 34 31 27 23 22 26 29 21 21 21 24 28 26 24 20
50 50 50 50 51 50 50 44 39 38 42 42 32 32 32 32 35 33 32 32 32 31 31 31 31 34 36 36 36 33 36 27 22 20 18 19 17 17 18 19 23 25 25 24
49 50 50 51 51 50 49 44 39 35 34 36 33 30 29 31 32 33 33 31 30 30 30 30 31 33 35 36 35 34 34 29 26 25 21 20 17 16 16 17 21 21 23 21
49 49 50 50 51 48 49 43 40 41 38 34 34 33 30 29 29 32 30 30 30 31 32 29 30 31 30 30 33 32 33 32 34 28 22 21 19 18 22 20 21 20 23 23
49 49 50 50 50 50 46 45 47 42 40 38 35 35 32 30 33 36 33 31 31 34 34 37 36 35 32 30 32 32 34 36 33 28 31 29 27 28 22 21 23 24 24 25
50 49 50 50 49 51 54 52 44 49 40 36 34 34 32 31 34 32 32 33 35 39 36 36 35 35 35 32 35 36 38 36 37 28 31 19 21 23 24 23 24 26 25 26
50 50 50 50 50 51 50 47 49 48 42 39 36 35 32 36 36 35 39 40 39 38 35 37 29 33 27 31 31 32 36 38 33 30 27 24 24 26 28 28 27 28 32 34
50 51 50 50 51 51 51 53 54 50 42 41 36 34 37 37 39 40 42 43 42 40 42 38 20 28 24 27 31 35 35 40 36 30 26 22 24 25 30 29 25 37 37 38
51 51 50 50 50 51 53 53 56 49 49 43 44 38 39 39 41 41 41 42 43 43 41 32 28 30 25 24 26 32 33 33 31 30 27 29 28 29 30 25 32 40 39 38
52 51 51 50 50 50 53 53 55 53 47 45 45 43 42 41 42 44 42 41 43 45 35 35 36 37 35 30 27 32 29 31 30 31 28 25 31 33 33 37 39 40 39 38
51 52 51 50 50 50 52 49 52 54 49 48 51 50 50 48 47 42 44 39 43 44 42 40 41 37 39 36 28 24 26 33 33 33 31 33 35 39 41 41 39 38 37 35
51 52 52 51 50 50 52 51 53 49 52 46 47 47 48 50 50 50 44 46 41 41 47 43 40 34 40 30 34 28 27 28 30 32 32 31 38 40 39 39 39 38 36 34
51 51 52 51 51 52 52 50 53 49 48 41 46 46 47 48 50 49 49 47 49 48 47 41 39 33 39 38 34 33 35 33 31 31 32 33 40 40 39 38 36 33 28 24
51 51 52 52 51 52 53 53 52 53 49 41 46 44 45 45 47 48 47 47 47 47 41 39 37 43 40 42 40 39 36 31 33 34 39 39 40 39 39 37 31 26 24 23
51 51 51 52 51 51 52 46 52 52 52 44 40 46 44 43 45 46 46 46 49 47 45 42 45 40 39 37 35 34 30 31 38 38 40 40 39 38 37 32 27 24 23 18
51 51 51 52 51 53 48 45 51 51 53 43 38 44 43 43 44 45 47 48 48 46 43 44 43 42 40 39 34 32 32 36 38 39 38 37 37 35 34 30 26 19 16 15
50 51 51 51 49 49 49 51 51 52 49 47 36 39 41 43 43 42 43 44 44 43 43 42 40 40 41 36 38 35 35 35 38 39 39 38 36 33 27 22 16 15 15 15
49 50 50 51 50 49 50 49 51 52 49 39 38 35 34 41 41 41 41 43 37 41 38 38 40 37 34 37 37 37 34 34 35 35 31 28 24 19 17 16 16 16 16 17
49 50 47 42 44 47 48 49 45 44 44 43 39 41 38 39 38 37 37 39 36 34 36 38 34 34 39 37 36 36 34 36 35 30 24 20 19 18 17 17 18 20 22 23
45 41 39 42 45 45 43 41 40 39 38 38 40 42 38 41 36 36 39 35 35 31 34 34 32 31 35 36 34 35 35 35 30 24 21 19 18 17 17 19 23 25 26 26
42 41 42 41 37 36 38 36 35 34 35 34 34 36 39 38 41 36 34 34 33 30 35 32 29 30 34 33 32 32 30 24 21 19 17 17 16 18 24 26 26 26 28 28
40 36 35 35 32 30 31 29 30 32 32 33 34 32 34 35 36 33 32 30 29 35 30 27 30 32 31 30 28 27 25 22 20 18 18 18 19 23 25 27 28 29 29 29
33 32 29 30 29 30 30 31 32 34 35 34 34 32 33 33 32 32 30 31 32 27 25 26 32 29 29 28 27 26 25 22 21 25 24 23 24 25 29 30 30 30 30 31
32 32 28 29 30 31 32 33 33 34 36 35 33 33 34 31 30 31 30 27 26 28 28 32 31 30 29 28 26 25 25 26 25 23 23 23 25 27 28 30 31 32 32 31
33 32 30 31 31 30 32 32 32 35 34 35 35 31 30 29 30 28 27 27 26 30 31 31 32 31 30 28 26 23 22 23 24 25 25 24 25 27 29 31 31 30 30 31
32 30 33 33 32 31 31 33 32 36 34 30 32 28 25 30 28 26 30 28 30 31 31 31 31 28 27 23 21 23 24 25 26 26 26 26 27 29 29 29 30 30 30 31

GFSNW_sfc_30mbdewp_033.txt.gz
Dewpoint
50 49 49 50 51 51 50 50 37 56 57 30 38 32 33 29 29 32 32 31 25 27 26 28 28 31 32 32 32 28 27 26 22 22 25 27 25 25 26 23 23 27 26 23
50 49 49 50 51 51 54 45 48 55 55 27 33 33 31 30 29 29 30 31 33 32 31 30 35 35 36 37 35 34 29 25 23 24 27 29 21 21 20 26 28 23 22 21
49 49 49 50 51 50 50 50 39 46 48 46 40 33 31 32 35 33 32 32 32 32 31 33 35 35 37 37 32 32 36 27 23 21 21 20 17 18 17 19 23 24 25 25
49 49 49 50 51 49 48 49 40 37 32 29 37 35 33 33 33 34 34 32 32 32 30 32 34 36 36 37 33 34 34 29 30 29 24 22 20 19 19 17 18 19 21 24
49 49 49 50 50 48 47 47 45 40 34 29 36 35 30 33 33 33 32 31 31 33 32 34 34 35 33 33 33 34 34 33 31 23 30 26 20 22 25 23 22 24 25 25
49 49 50 49 50 50 50 48 48 48 42 30 36 35 33 32 34 35 36 33 37 36 35 36 37 36 34 35 33 34 37 34 31 19 30 27 26 25 22 23 25 25 24 30
49 49 50 49 49 51 55 53 52 43 36 40 37 36 34 35 33 34 40 39 38 37 37 37 37 32 33 36 35 40 35 35 34 21 29 7 26 26 29 28 29 31 35 36
49 50 50 50 51 51 53 53 52 44 37 42 37 34 37 40 42 41 40 40 39 38 41 32 22 28 23 31 34 35 38 34 27 22 27 25 25 27 28 28 32 37 37 37
49 50 50 50 50 51 52 54 57 50 40 41 42 36 37 40 40 41 41 44 44 45 41 29 18 22 24 28 31 36 39 36 29 28 18 12 25 30 30 29 26 38 38 37
51 50 50 49 49 50 55 53 56 54 44 46 46 40 39 43 43 41 42 42 42 43 35 28 21 26 30 28 30 30 34 33 29 29 25 26 31 30 30 25 27 39 39 38
52 51 50 49 49 50 54 50 55 52 46 47 50 49 45 44 44 40 43 39 42 41 31 27 30 33 32 30 32 30 25 26 28 29 26 22 33 34 28 35 40 38 37 37
52 51 51 50 50 51 53 47 53 55 51 50 51 49 50 50 50 45 43 36 44 43 37 37 39 35 38 34 25 33 27 29 29 29 27 31 36 37 41 41 38 38 36 36
51 52 51 50 51 52 53 52 54 52 48 48 48 47 49 49 50 52 42 45 45 45 46 40 38 30 38 30 31 30 29 35 32 33 33 37 40 39 39 39 38 38 36 35
51 51 52 51 51 52 54 52 54 49 47 41 46 46 46 47 49 49 49 49 49 48 44 39 39 32 40 34 28 31 31 35 33 32 36 39 40 39 39 39 38 35 33 30
51 51 52 51 51 51 54 54 54 53 48 39 43 46 45 45 47 48 49 48 47 44 41 37 34 38 40 40 39 37 38 34 32 30 37 38 39 39 39 37 32 32 26 24
51 51 52 51 51 53 54 50 53 52 53 41 36 46 44 44 45 47 48 49 49 47 42 41 42 45 38 36 34 36 36 35 38 40 40 40 40 39 38 35 32 26 22 18
50 51 51 50 50 49 48 45 50 50 52 39 39 41 43 42 45 45 46 47 47 45 43 42 41 41 40 37 33 36 35 39 39 39 38 37 37 36 37 34 29 19 17 18
51 51 51 50 49 50 50 49 50 51 46 43 35 38 39 43 42 40 43 41 43 43 42 41 39 40 39 35 38 38 37 39 38 39 39 38 38 36 34 32 18 17 17 19
50 51 51 51 49 48 49 49 50 51 46 37 37 31 30 42 40 40 40 42 37 40 39 38 39 37 35 37 38 37 37 37 38 38 36 35 34 23 18 18 18 19 21 22
50 50 46 43 44 46 49 47 42 42 42 41 37 39 36 39 38 37 36 38 35 32 34 39 35 34 38 38 36 35 35 36 35 32 26 22 20 19 18 19 24 24 24 25
46 43 41 42 45 45 42 38 38 39 37 39 40 39 37 41 35 35 37 34 34 30 31 33 32 31 34 36 35 36 37 35 34 26 20 19 19 19 21 23 26 25 25 25
43 42 42 40 38 38 38 37 36 36 35 35 36 36 38 38 41 35 35 33 33 28 35 32 28 33 33 33 34 35 35 29 21 19 19 20 20 24 22 21 22 26 27 26
40 38 36 36 33 32 32 31 32 32 33 34 34 33 35 36 36 34 33 31 30 35 30 27 31 33 33 32 31 25 21 20 20 21 22 21 20 21 22 23 26 27 28 28
34 33 30 31 29 30 29 30 31 34 34 34 34 32 33 33 33 32 30 31 31 27 25 26 33 34 31 29 28 25 21 21 21 22 23 22 22 23 25 27 27 28 28 29
32 33 28 28 30 31 32 33 33 34 36 34 33 32 33 31 29 31 29 26 25 28 27 31 34 31 28 27 26 24 23 23 24 25 23 22 23 24 25 27 28 29 30 30
32 32 29 31 30 30 31 32 31 33 33 34 34 31 30 28 29 28 27 27 25 28 32 34 31 30 29 28 25 23 22 21 22 23 25 25 25 25 26 29 29 28 28 28
31 29 33 33 32 31 31 32 32 35 33 30 31 27 25 30 27 26 30 27 29 32 32 32 30 28 26 23 23 24 25 25 25 26 26 26 27 27 27 26 27 28 30 29

GFSNW_sfc_30mbdewp_036.txt.gz
Dewpoint
49 48 49 49 50 50 50 48 35 54 49 24 38 30 31 30 29 32 31 32 32 26 26 30 32 31 31 36 35 25 29 25 21 22 25 27 26 26 26 19 19 27 25 21
49 48 49 49 51 51 49 43 49 55 48 17 30 31 33 31 29 30 30 31 33 32 31 31 35 34 38 34 34 32 30 25 20 23 27 29 23 24 25 29 27 21 18 19
48 48 49 49 51 50 52 47 38 44 49 43 31 29 31 32 36 33 33 32 33 32 32 36 35 34 37 33 30 33 36 28 22 19 22 22 17 18 19 22 21 22 24 23
48 48 49 50 51 49 49 49 37 33 26 33 40 36 32 32 31 34 33 31 32 32 32 34 35 37 36 36 32 33 33 27 30 28 26 24 21 20 19 17 18 17 22 27
48 48 49 50 50 48 47 45 44 41 30 27 29 37 33 33 33 33 32 30 33 33 32 33 34 34 34 31 32 34 36 30 29 21 31 27 21 20 26 25 22 24 29 32
48 48 48 48 49 49 46 51 50 39 42 28 34 35 32 34 34 36 38 36 35 33 35 37 37 37 36 35 32 35 35 32 24 5 29 24 17 25 22 24 27 26 24 31
49 49 48 48 49 51 55 52 49 40 37 32 28 37 35 36 35 36 40 39 34 37 39 35 28 31 34 36 39 37 34 33 29 16 22 4 23 28 27 31 34 34 35 36
49 50 50 50 50 51 53 53 49 40 36 42 37 37 40 40 41 40 41 42 39 40 37 22 18 21 24 32 37 37 36 31 25 16 20 18 25 28 28 26 30 37 37 37
49 50 49 49 50 52 52 54 54 43 38 41 45 40 39 37 38 39 41 44 47 41 35 20 12 8 13 27 31 36 36 31 22 27 12 5 19 30 30 29 25 38 38 37
51 50 49 49 50 53 51 52 56 48 42 45 46 38 39 43 40 39 41 41 41 38 28 21 16 22 29 26 27 31 34 32 29 25 20 22 26 31 30 25 21 39 38 37
51 50 49 49 50 52 50 51 54 48 45 49 49 48 43 44 41 36 41 37 40 36 27 19 24 25 29 30 31 30 27 25 26 28 26 16 31 33 27 28 39 39 38 37
51 51 50 51 51 52 53 48 53 53 48 48 49 49 49 50 48 43 42 32 41 37 32 32 35 31 36 32 24 32 24 24 24 27 23 28 35 32 39 40 38 37 37 36
51 51 51 51 51 52 52 51 53 49 45 47 47 46 48 48 50 50 39 45 45 44 39 38 37 27 36 29 30 32 30 34 31 31 31 34 38 39 40 39 38 37 37 36
51 51 51 51 51 53 53 52 53 46 44 36 44 47 45 47 49 50 48 48 48 45 41 38 37 29 36 30 27 31 27 35 33 33 38 39 39 39 39 38 38 36 35 33
51 51 51 50 52 53 53 52 51 52 38 39 42 45 46 45 48 49 48 47 45 42 40 37 36 36 38 37 37 34 36 31 31 30 35 35 36 39 39 37 36 32 30 26
51 51 51 50 50 54 51 42 51 50 48 39 36 45 43 43 48 48 48 48 47 43 39 37 40 44 37 35 34 36 39 38 37 36 41 39 39 39 39 36 32 32 23 19
51 51 49 49 49 48 46 40 49 50 47 37 39 39 43 43 45 44 45 45 45 44 41 40 39 39 40 35 33 34 36 39 40 39 38 38 38 37 38 35 29 20 19 19
51 51 50 50 50 50 47 49 49 48 42 38 33 36 38 42 41 40 42 40 41 41 41 40 39 38 37 35 37 38 38 39 38 38 38 37 38 38 36 30 19 19 19 21
51 51 49 47 47 46 47 48 48 46 41 35 35 28 29 41 39 39 39 39 37 38 39 39 38 35 34 36 38 38 38 38 38 39 37 37 35 31 23 19 20 20 22 23
49 48 43 41 44 46 47 43 40 40 41 39 34 36 35 38 36 36 36 36 34 32 33 38 35 34 37 37 38 37 38 39 39 35 30 22 20 20 21 22 24 24 23 24
46 43 42 42 44 43 40 37 36 37 36 38 39 37 36 40 34 35 35 33 34 29 30 32 31 31 34 36 36 37 35 35 32 26 23 24 23 21 22 24 24 24 24 24
44 42 42 40 38 39 38 36 35 35 34 36 37 37 38 38 38 35 34 32 32 27 35 32 28 32 34 35 36 35 29 23 22 25 24 23 22 21 20 19 19 22 25 25
41 38 36 37 34 34 34 31 32 32 33 34 35 35 35 36 36 34 34 31 30 34 30 28 30 33 34 31 26 24 22 22 22 22 22 20 20 21 20 20 23 25 26 27
34 34 31 32 29 29 30 31 31 33 34 34 34 32 34 33 34 32 30 31 32 28 25 24 32 35 34 29 24 21 21 22 22 22 23 22 22 22 23 24 25 26 26 27
32 32 27 28 30 30 32 33 32 33 35 34 33 32 33 31 30 31 29 26 25 27 25 30 33 34 30 27 26 22 22 23 21 21 21 21 23 23 24 25 26 27 27 28
32 32 28 31 30 30 31 32 31 33 33 34 33 31 30 28 29 27 26 25 23 25 31 33 33 31 29 26 25 24 22 21 22 23 24 24 25 24 25 26 27 27 27 27
30 30 33 32 31 30 31 32 32 35 33 29 31 26 25 29 27 26 28 25 29 31 31 34 32 28 25 24 25 25 25 25 26 26 26 25 26 26 26 25 26 27 28 29

GFSNW_sfc_30mbdewp_042.txt.gz
Dewpoint
49 49 48 48 48 51 52 42 32 52 40 26 34 27 31 34 29 32 32 30 26 25 28 30 29 28 30 37 34 25 29 24 21 21 25 29 26 25 22 9 16 26 23 19
48 48 48 48 49 51 49 42 49 53 35 23 29 31 29 33 29 30 31 32 31 34 33 29 32 33 36 33 32 28 27 23 19 21 22 26 25 25 27 24 24 19 14 10
48 48 48 48 50 51 48 45 40 44 43 32 27 25 26 30 35 33 33 33 33 34 34 35 33 34 35 31 31 35 30 26 20 15 16 23 19 19 26 22 19 19 19 17
48 48 48 49 50 50 50 43 39 40 34 37 28 24 29 31 31 33 33 31 32 32 32 34 33 36 33 31 34 34 28 23 27 27 26 24 19 18 20 20 19 15 15 20
48 48 48 49 50 50 47 44 36 34 33 38 34 29 32 31 33 33 31 29 34 33 31 30 31 33 30 20 33 33 33 26 26 25 29 27 22 21 20 20 19 20 21 20
47 48 48 50 50 49 45 49 47 34 34 38 33 32 32 33 35 38 36 33 33 32 34 37 38 36 35 33 31 33 29 28 25 18 25 17 14 19 20 23 24 22 20 23
47 47 47 49 50 49 50 50 47 37 30 31 36 35 34 34 34 33 38 36 33 36 36 33 31 33 37 37 37 35 29 25 19 9 14 -2 8 22 26 23 26 28 29 30
48 47 47 48 49 50 52 53 45 38 30 30 32 37 38 40 41 40 40 41 40 36 27 28 28 25 29 32 35 33 31 25 19 10 11 10 10 26 27 25 22 32 30 34
49 49 49 48 48 48 53 53 47 43 33 34 40 39 39 37 37 39 42 43 39 33 23 20 25 24 23 22 32 35 29 25 19 20 6 -3 8 28 31 27 22 31 34 34
49 49 49 50 49 50 52 53 51 45 43 47 43 38 37 39 37 37 40 39 38 33 24 19 17 17 20 16 19 29 33 30 26 20 14 15 19 30 29 21 15 34 36 36
49 50 50 51 51 52 52 52 53 46 46 47 48 48 41 40 39 34 40 36 36 31 27 23 20 19 26 26 28 30 25 25 25 24 22 13 25 30 25 26 31 34 37 37
50 51 51 51 52 51 53 49 53 51 47 47 48 47 47 48 40 41 40 35 37 34 29 23 26 22 32 28 19 32 24 25 22 25 20 26 29 31 35 35 34 37 37 37
51 51 51 52 51 50 51 51 48 47 45 45 45 45 47 46 49 46 36 40 40 36 35 31 30 18 32 20 26 29 31 30 26 27 25 29 30 34 38 39 37 38 38 37
50 51 51 52 52 51 50 48 49 43 43 40 43 46 44 47 50 49 46 43 41 39 37 32 29 20 32 27 28 29 30 32 29 30 31 35 36 38 37 39 38 38 37 37
50 51 51 50 50 50 50 49 49 47 32 39 41 43 44 47 48 46 44 42 41 39 37 35 31 31 33 33 33 30 32 28 26 22 28 30 30 37 39 38 37 37 35 32
49 50 51 51 50 46 39 37 48 48 44 40 38 42 42 44 45 45 45 45 42 40 39 37 36 40 35 33 33 34 36 36 34 31 38 37 38 38 38 38 37 35 27 26
48 48 49 48 48 47 38 35 46 45 43 36 37 38 40 41 43 42 42 43 42 41 39 37 38 39 38 35 32 33 36 37 39 39 39 38 38 38 37 35 29 24 22 21
49 49 48 48 48 47 47 47 45 44 35 34 30 34 38 41 40 40 40 40 39 39 38 37 37 37 36 35 37 38 39 38 38 38 37 38 39 32 25 22 22 22 23 25
47 47 46 45 45 44 47 46 44 43 35 28 29 25 28 40 37 36 38 37 38 37 37 37 37 34 33 35 36 37 38 38 38 36 36 31 25 22 24 26 28 30 28 23
45 43 40 40 44 44 43 39 37 38 39 37 31 34 35 38 36 36 34 35 33 32 32 37 35 34 35 35 35 36 37 37 35 29 27 30 32 33 34 33 28 24 23 24
43 42 41 44 43 41 38 35 34 35 35 36 35 35 35 38 36 35 32 31 32 28 28 32 29 29 33 31 30 32 32 32 33 34 35 36 35 32 27 24 23 21 21 21
42 43 41 39 38 38 34 33 34 33 33 36 37 36 37 37 35 33 34 29 30 26 33 30 27 32 30 29 34 36 36 36 36 36 35 35 30 24 20 17 17 19 22 24
39 38 38 36 35 33 32 30 32 32 34 35 35 35 35 36 35 33 32 30 28 33 30 28 30 28 28 34 35 34 34 33 28 23 22 21 20 21 20 20 21 23 23 24
36 36 35 33 32 31 32 32 33 32 33 34 35 33 34 33 34 33 31 32 32 28 26 25 31 33 33 35 32 28 24 23 22 21 21 21 21 21 23 23 23 23 24 24
33 32 29 28 29 31 31 32 32 32 34 34 34 33 33 32 31 31 29 27 24 25 23 28 32 35 31 27 24 23 22 22 22 23 23 22 23 23 23 24 25 25 25 25
32 31 28 30 29 29 31 32 31 33 34 35 34 31 29 28 28 27 25 24 22 24 29 32 34 31 27 24 24 23 24 23 24 24 24 24 24 24 25 26 26 26 26 25
31 29 32 32 31 30 31 32 32 34 33 30 30 27 26 28 26 25 26 23 27 30 32 33 32 28 25 25 30 29 25 25 25 26 27 27 27 27 27 27 28 28 27 27

GFSNW_sfc_30mbdewp_045.txt.gz
Dewpoint
50 49 49 49 48 49 50 45 38 52 43 32 32 25 27 35 31 33 32 27 26 25 28 29 29 28 30 36 33 27 28 24 21 22 25 28 26 25 25 15 16 25 23 15
49 49 49 48 48 51 49 40 47 53 35 27 27 30 29 32 30 30 31 31 30 33 32 28 32 33 35 33 30 28 27 23 20 20 22 27 25 27 24 23 26 22 13 6
49 49 48 48 48 51 48 46 40 45 38 32 27 26 26 28 35 33 33 34 35 34 33 35 33 33 34 31 32 34 28 25 20 18 16 24 22 25 25 22 17 17 18 15
49 48 48 48 48 50 49 42 40 42 35 28 27 25 28 24 31 33 32 32 32 32 32 33 33 35 31 32 36 35 28 22 25 26 27 24 19 20 26 22 20 14 14 18
48 48 48 48 48 50 49 40 37 35 35 34 27 28 29 27 33 33 29 31 34 33 31 30 32 33 28 23 34 33 32 25 26 25 28 26 22 22 20 22 20 21 20 20
48 48 48 47 49 50 47 49 43 32 35 36 25 26 31 31 35 38 36 34 33 32 34 37 37 36 35 31 32 32 28 27 25 18 23 18 17 20 22 22 23 20 19 21
48 48 47 47 50 49 49 49 43 30 29 34 28 30 34 33 33 33 38 35 32 37 39 34 33 35 37 36 34 33 26 23 19 12 13 -0 10 24 23 22 24 25 27 29
47 47 47 48 50 50 52 51 43 34 27 33 34 36 37 39 40 39 39 41 39 37 29 31 30 28 30 32 33 31 28 23 17 10 9 10 7 18 23 24 16 27 27 32
47 47 47 48 50 50 53 51 46 39 31 30 36 38 39 36 38 39 41 40 37 31 25 26 27 26 26 25 31 34 28 25 20 19 6 1 5 24 32 28 19 28 32 33
47 47 47 48 49 51 53 53 48 45 39 46 42 37 37 39 38 37 38 36 35 32 24 22 24 23 22 18 17 26 31 30 26 20 16 16 18 27 29 17 11 32 34 35
49 48 47 48 49 51 53 52 52 47 45 47 48 46 39 39 39 35 39 36 36 30 28 26 23 21 23 23 26 28 24 24 25 23 22 13 24 30 24 26 29 33 36 36
49 49 49 49 49 50 53 49 52 51 47 46 47 47 47 47 40 41 40 36 36 34 30 25 26 25 30 26 20 32 23 26 22 24 19 25 26 31 34 34 32 34 36 37
50 50 51 49 49 52 52 51 50 48 45 44 45 44 46 48 48 46 36 39 38 34 34 28 27 17 30 21 25 28 31 30 27 26 25 28 29 31 35 38 37 37 38 38
50 51 51 51 51 51 50 47 48 47 44 41 42 45 46 47 49 48 44 41 39 38 36 30 27 19 31 25 26 27 29 31 29 29 29 31 32 36 36 37 39 38 38 37
50 51 51 51 50 49 49 48 48 47 40 40 41 44 44 46 46 44 42 40 38 37 35 31 27 31 32 33 31 28 32 29 26 23 28 28 30 37 38 38 38 37 34 29
50 50 50 49 49 47 41 40 47 45 44 40 39 42 42 43 44 44 44 43 41 40 39 36 36 39 35 32 31 33 34 36 35 32 38 36 38 38 38 38 37 31 28 27
48 48 49 48 46 44 34 35 44 44 43 37 38 38 39 41 43 42 42 42 41 41 38 37 38 38 37 34 30 34 38 39 39 39 38 37 38 38 34 29 26 25 24 25
48 47 47 47 47 47 45 46 44 43 34 34 32 34 39 41 40 39 40 39 39 39 38 37 36 37 36 35 36 37 38 38 38 37 38 36 29 25 23 24 27 31 33 33
47 46 46 45 45 45 46 45 43 42 33 26 28 26 30 40 36 37 38 37 37 36 36 36 37 34 33 34 35 35 36 37 35 28 26 25 27 30 33 34 35 34 32 29
45 43 39 39 44 44 43 38 35 36 37 35 31 35 34 38 37 35 35 34 34 33 33 37 35 34 34 30 31 32 36 36 30 30 30 32 33 35 34 32 32 30 25 24
42 41 42 44 43 40 36 34 33 34 33 35 34 35 34 37 36 33 32 32 31 28 28 32 30 29 32 33 34 34 34 34 34 34 35 36 35 31 30 25 24 22 21 19
43 43 41 39 37 36 32 32 34 33 32 35 36 36 37 36 35 33 33 29 30 26 32 29 26 30 31 35 35 36 36 36 35 35 34 33 29 27 22 18 18 19 21 23
41 39 38 36 35 32 29 28 31 31 34 35 35 34 35 35 35 33 31 29 28 32 29 28 30 28 34 34 33 33 32 29 26 24 23 21 21 22 22 21 23 23 24 24
37 37 33 32 32 32 33 32 33 32 34 35 35 33 34 34 33 33 31 31 32 27 25 26 29 31 33 33 30 26 23 23 22 21 21 21 22 23 23 23 24 24 24 25
34 32 29 29 29 31 31 32 32 32 34 34 34 34 34 32 31 31 29 28 25 25 24 29 32 33 34 30 26 23 22 22 23 24 23 23 24 24 25 26 27 27 25 25
32 30 28 30 30 30 31 32 31 33 34 35 35 31 30 28 28 27 26 25 22 24 29 31 32 32 29 25 24 24 24 24 25 25 26 27 27 26 26 26 26 25 25 24
31 28 32 31 31 30 31 32 32 34 33 30 30 28 26 28 25 24 26 23 25 30 31 32 32 30 25 25 28 26 26 27 28 28 27 26 26 25 22 20 20 21 22 23

GFSNW_sfc_30mbdewp_048.txt.gz
Dewpoint
48 52 51 50 49 49 50 44 37 56 54 41 40 34 29 30 32 35 29 26 22 22 25 26 21 23 26 35 30 28 30 28 25 23 26 28 26 24 24 16 17 25 22 9
48 50 51 49 49 50 49 41 46 54 47 38 37 32 28 32 30 31 31 28 28 32 28 28 30 31 36 34 31 30 29 26 24 23 24 28 25 26 24 24 26 20 21 6
47 49 50 49 49 50 49 40 40 49 45 37 34 30 27 26 36 33 34 34 35 34 32 35 33 34 35 34 33 31 28 28 24 20 19 24 23 25 23 19 18 12 14 5
47 49 50 49 49 50 51 43 35 40 41 37 32 30 26 25 32 34 35 33 31 31 32 32 33 34 32 34 36 35 32 26 25 25 25 24 22 22 24 20 17 17 10 10
47 49 49 48 48 50 49 41 39 41 39 35 30 29 27 24 33 33 31 30 33 34 31 29 32 33 31 30 35 34 33 28 28 27 28 26 23 22 21 23 21 20 17 17
47 49 49 48 48 50 47 50 43 38 38 33 28 28 26 27 34 39 36 34 35 35 36 39 39 36 33 31 34 34 32 31 27 21 24 22 21 23 21 20 22 21 17 19
47 49 48 48 48 50 47 50 41 39 33 33 27 27 30 32 35 35 38 37 36 39 40 37 36 36 35 33 33 33 31 30 29 23 16 9 13 22 22 22 22 22 22 25
46 48 48 47 48 50 54 54 44 39 34 35 29 30 34 39 41 40 39 41 40 39 36 34 32 32 32 34 32 31 29 28 22 21 16 13 9 15 16 18 13 21 21 23
48 48 47 47 48 49 52 55 51 42 33 35 30 33 37 37 39 40 40 40 38 35 35 34 32 31 30 30 33 33 29 30 29 23 18 15 13 24 31 28 17 27 27 28
47 47 47 47 48 50 54 54 53 46 40 41 41 33 37 41 40 40 38 37 38 36 34 28 31 31 27 25 25 29 33 34 31 29 26 22 21 27 31 19 17 31 32 33
47 47 47 47 48 50 54 54 54 50 48 47 48 45 41 41 41 39 39 37 38 37 31 31 32 32 27 25 25 29 28 30 29 29 26 19 24 30 25 30 32 33 36 35
46 47 47 47 49 50 54 52 53 53 48 47 48 48 49 48 43 41 40 40 38 38 37 35 35 30 31 32 29 31 27 29 28 27 25 29 28 32 35 35 34 34 35 37
48 47 47 48 49 51 53 53 53 51 49 46 47 46 47 49 49 49 40 42 41 38 40 38 37 24 35 28 30 30 31 31 30 28 25 28 29 30 31 32 35 36 38 39
48 48 48 49 49 51 52 52 52 51 48 43 45 47 47 47 49 49 46 44 42 39 40 37 32 28 33 31 30 30 30 31 30 30 28 29 31 35 37 38 39 39 39 39
49 49 49 48 49 50 51 50 50 51 45 42 45 46 46 46 45 44 43 41 39 41 37 31 34 35 36 36 34 32 31 29 30 29 31 31 34 39 40 39 39 39 36 34
50 50 49 50 49 48 49 42 47 47 49 45 41 44 45 45 46 45 44 44 44 44 42 38 39 39 39 34 32 35 35 37 36 33 39 39 40 39 39 39 37 34 32 29
49 49 49 47 46 47 41 40 46 45 46 43 40 43 43 44 45 44 45 45 44 44 41 39 40 39 39 36 33 37 39 39 39 39 39 39 38 35 34 32 28 29 32 34
48 48 47 46 46 47 45 44 44 44 41 42 35 38 43 43 42 40 42 42 43 40 39 39 38 39 39 36 37 36 38 39 38 37 37 34 30 28 28 31 34 35 34 33
47 46 47 49 47 48 46 44 43 44 41 27 32 36 36 41 38 39 41 41 36 39 37 37 39 34 35 35 34 35 36 37 33 32 30 29 30 32 33 35 35 33 32 30
45 46 41 41 46 44 44 42 39 38 39 38 33 37 35 39 39 36 38 37 35 33 35 38 36 36 32 32 33 35 37 37 34 31 31 33 34 34 32 31 29 29 29 25
44 43 42 46 43 42 38 33 32 36 32 37 36 37 35 38 37 34 35 33 33 32 33 34 33 32 32 34 35 35 34 33 33 33 33 34 32 29 29 25 25 22 21 20
45 45 44 42 40 37 32 32 35 34 32 36 36 36 37 36 38 35 34 31 32 30 33 31 28 31 33 34 35 36 36 35 33 33 33 31 28 23 21 19 21 23 24 25
45 41 37 38 36 30 29 26 31 32 34 35 36 34 36 36 37 33 32 30 30 33 30 28 30 31 35 35 34 32 32 32 30 25 21 22 22 25 25 26 26 27 27 28
38 37 33 33 32 32 33 33 34 32 34 36 36 34 35 35 34 34 31 31 32 28 27 27 29 33 33 32 29 24 23 25 23 22 24 26 26 26 28 29 29 27 25 24
34 34 31 30 30 31 31 32 33 33 35 36 36 35 37 33 32 32 31 28 27 28 27 30 32 33 33 28 24 23 24 25 25 25 26 27 28 29 28 26 23 23 24 24
32 31 29 30 30 30 31 32 31 33 34 36 36 33 32 30 31 30 29 28 26 28 29 32 33 33 30 26 25 25 25 25 27 28 28 27 26 24 21 21 20 21 21 21
31 29 32 32 31 30 31 32 31 34 34 31 32 30 28 30 28 27 28 28 29 30 30 32 34 32 27 25 26 28 28 28 28 26 24 23 21 20 16 13 12 12 13 16

GFSNW_sfc_30mbdewp_054.txt.gz
Dewpoint
46 46 49 49 52 51 50 43 33 48 53 41 35 37 36 34 32 25 28 24 18 16 16 16 15 14 15 22 22 23 20 21 19 22 21 21 21 21 19 22 18 20 21 19
46 46 48 49 51 51 48 40 41 52 50 33 32 33 35 34 30 26 28 28 23 20 18 16 17 17 33 27 25 24 25 23 19 18 21 24 22 18 18 19 24 22 23 18
45 45 48 49 51 51 48 39 38 49 49 37 29 32 33 32 32 25 25 27 23 20 19 21 21 20 33 33 30 31 33 24 19 18 16 22 22 21 18 19 24 24 23 18
45 45 47 49 50 50 50 40 35 41 41 42 34 35 32 30 29 27 26 25 24 20 21 19 20 22 35 34 35 31 30 21 17 16 18 20 23 22 19 18 20 21 23 17
44 46 47 48 50 50 48 38 35 42 39 39 35 32 35 31 29 26 27 28 25 23 23 22 21 26 33 30 35 31 32 28 28 27 26 24 24 22 21 20 19 17 18 16
44 46 48 48 49 50 46 42 42 41 39 38 33 35 37 33 31 27 26 29 28 26 27 32 36 32 33 30 34 32 31 32 31 28 26 23 20 22 22 19 18 18 17 19
45 46 47 48 49 49 46 43 45 42 37 35 34 35 36 35 31 28 30 33 30 35 39 37 36 34 34 34 34 35 34 34 34 29 23 17 18 19 16 17 16 14 14 15
45 47 47 47 49 49 48 46 48 44 39 34 32 35 37 37 34 28 32 39 41 40 38 38 35 35 29 32 31 32 33 35 33 27 22 19 19 16 15 15 16 18 19 19
45 46 46 46 47 49 48 48 52 54 41 36 31 34 37 35 33 40 44 43 43 41 39 37 31 29 28 25 30 28 28 34 29 29 28 18 22 22 22 21 15 20 20 22
45 46 44 45 45 45 47 48 51 52 47 40 35 32 33 35 36 39 41 42 41 43 44 35 31 28 24 25 31 33 33 34 32 31 29 30 26 25 25 18 25 27 27 23
45 45 44 45 45 45 48 47 50 50 49 39 39 35 33 34 39 41 41 39 40 42 35 34 37 35 32 26 28 34 34 35 33 36 33 28 26 24 22 32 31 31 29 33
45 45 44 44 47 46 47 46 50 52 53 49 51 50 49 48 49 42 43 38 39 42 41 43 44 38 37 35 28 26 27 32 35 34 33 31 24 29 35 32 31 32 35 35
44 44 44 46 47 47 48 47 50 55 51 47 45 46 49 49 49 52 42 43 40 40 44 46 45 36 42 33 34 28 29 32 32 31 25 27 26 29 34 35 36 37 38 37
45 45 46 47 47 48 48 48 51 55 49 43 46 49 47 48 49 49 50 46 48 48 49 46 38 39 38 39 34 31 32 31 29 27 27 26 36 38 39 39 40 39 38 38
46 46 47 47 47 48 49 49 52 56 51 43 46 46 47 46 48 47 47 48 46 46 41 31 41 40 41 39 36 33 31 30 31 33 36 36 39 40 40 39 38 37 35 31
47 47 47 47 48 49 49 48 50 54 54 47 42 47 46 45 45 45 45 45 45 47 46 44 41 41 43 37 34 33 35 35 38 37 39 40 39 38 37 35 34 33 31 30
47 47 47 47 49 51 48 45 48 48 52 46 42 43 46 47 46 46 47 48 48 46 45 44 42 40 43 39 35 36 37 38 39 39 39 38 38 33 33 33 31 32 33 34
46 47 47 48 49 48 49 48 47 47 47 46 40 41 44 46 46 44 46 46 45 44 41 42 42 42 43 38 37 38 38 38 36 36 37 35 34 35 35 36 34 32 31 31
47 48 49 50 50 48 47 44 47 51 45 37 38 37 37 44 42 44 43 44 38 43 39 40 42 38 36 38 37 36 37 37 34 33 33 34 35 34 34 32 31 30 28 26
48 50 47 46 47 46 45 45 47 43 43 42 39 42 39 41 41 39 40 39 38 36 37 40 38 36 35 35 36 37 37 37 34 34 33 33 33 32 30 28 28 26 25 25
49 46 44 46 46 48 43 35 35 39 34 39 40 40 39 42 37 36 39 36 36 32 35 36 33 34 34 36 36 37 36 35 35 35 35 34 32 29 25 22 24 26 27 28
47 46 47 47 45 39 33 33 36 38 35 37 38 38 39 39 41 37 37 33 35 31 36 35 30 33 35 36 35 35 35 35 34 33 31 29 25 22 24 25 28 30 30 26
46 41 39 40 38 32 30 28 33 32 35 37 37 36 37 38 38 35 35 32 32 35 31 29 33 34 35 35 34 34 34 33 31 25 24 25 28 29 30 29 28 26 24 24
38 37 34 35 33 34 33 33 34 34 37 38 37 36 36 37 34 36 31 33 33 29 28 29 33 34 34 33 33 31 27 26 25 25 27 29 29 26 25 25 25 23 21 22
35 36 30 29 31 32 32 34 34 35 39 38 37 37 36 35 33 34 32 30 28 29 29 33 35 35 34 33 30 26 27 27 27 29 30 30 29 25 22 20 20 22 21 20
33 32 31 32 32 31 32 33 33 35 37 40 39 35 32 32 34 31 31 29 28 31 32 34 35 32 30 27 27 26 26 28 28 29 28 25 23 22 20 17 14 20 17 15
31 29 31 32 31 30 31 32 32 35 36 33 35 31 30 33 30 29 31 29 30 31 33 34 34 33 29 27 29 29 29 29 28 27 25 23 20 18 15 12 9 9 13 13

GFSNW_sfc_30mbdewp_057.txt.gz
Dewpoint
43 45 47 48 48 51 50 49 41 46 51 41 40 37 36 38 37 36 36 27 26 23 16 18 17 17 18 22 26 24 29 31 28 29 32 25 22 21 25 18 16 23 21 19
45 45 47 47 49 51 47 45 42 49 47 29 35 36 36 37 36 35 33 28 28 26 23 21 21 19 34 28 25 25 30 24 19 23 23 25 22 21 19 21 29 21 19 20
42 44 46 47 48 51 49 44 38 46 47 31 32 33 30 32 35 37 36 30 30 29 23 23 23 31 33 34 32 31 30 27 23 18 18 21 23 23 21 20 19 21 22 23
41 41 43 47 48 50 48 45 35 44 40 41 35 32 30 32 33 36 35 31 28 27 23 21 23 33 34 34 34 31 29 23 23 20 22 25 22 23 24 23 22 21 21 23
40 41 41 46 48 49 45 41 38 44 43 41 41 33 30 29 32 34 32 29 28 28 23 23 21 32 34 32 34 31 32 27 26 26 29 26 23 24 24 23 21 20 20 20
39 40 40 46 48 48 41 44 44 40 42 41 40 38 31 31 33 34 33 28 30 30 27 31 34 35 35 33 32 31 32 30 29 27 25 23 22 22 22 22 23 21 17 20
39 40 39 46 48 48 43 44 44 42 36 41 39 35 32 34 34 36 31 29 30 35 39 38 38 36 35 36 36 35 34 33 33 26 23 20 23 24 18 18 18 17 19 26
40 40 43 46 48 48 42 47 46 45 38 39 38 34 32 32 36 37 36 36 40 40 39 37 33 32 30 33 34 33 36 34 32 26 22 24 22 19 15 15 19 21 22 28
41 44 45 46 47 48 44 41 46 48 42 39 37 33 33 34 37 39 43 46 45 45 41 36 29 27 28 29 28 33 34 37 29 33 24 18 24 22 22 20 18 28 24 25
44 44 45 47 47 46 45 42 45 46 46 43 38 33 31 37 39 40 44 45 43 46 38 33 28 27 27 28 29 29 29 32 29 26 20 25 32 24 25 16 22 29 31 37
43 44 46 46 46 46 46 41 47 48 46 46 45 36 36 38 40 40 44 40 44 45 34 32 35 28 28 30 35 32 28 27 28 34 28 21 33 24 21 32 33 33 36 39
44 46 46 46 47 48 44 41 47 50 46 48 52 49 50 46 44 45 42 39 41 42 37 41 40 36 35 30 25 35 30 33 31 32 30 35 35 34 34 33 35 37 36 37
44 45 44 44 45 46 45 42 48 48 45 49 51 48 48 49 51 52 41 44 42 44 47 45 43 31 38 31 32 31 33 35 33 33 32 29 37 38 39 39 38 39 39 39
45 44 43 44 46 45 45 43 45 49 48 44 47 50 47 48 51 51 53 52 51 50 47 40 37 35 41 35 33 31 33 32 30 30 37 39 40 40 40 40 40 33 30 32
45 44 42 44 46 47 47 46 46 49 47 44 46 48 47 47 50 52 51 51 50 44 34 31 37 41 40 38 35 32 33 32 28 28 39 38 39 40 39 36 33 30 29 30
45 44 44 45 46 47 45 42 47 49 50 48 42 47 46 47 48 49 50 49 50 47 44 42 41 42 40 32 31 35 38 39 39 39 40 38 34 34 34 32 32 32 32 33
45 45 46 47 47 47 43 43 49 50 51 45 41 42 45 47 47 47 48 49 47 46 44 43 39 41 39 37 34 37 39 39 40 40 37 34 33 32 32 34 34 34 34 34
45 45 46 47 47 48 45 50 47 48 49 45 39 40 43 46 44 43 46 45 44 43 41 42 40 41 41 36 37 38 37 36 35 37 37 35 36 35 34 33 32 32 31 32
46 47 47 47 46 45 47 49 46 50 44 36 37 38 37 44 42 44 42 42 38 42 39 39 39 37 35 37 37 37 36 34 34 35 35 35 35 34 32 31 31 31 30 26
47 46 46 42 46 48 48 45 40 37 40 40 39 41 38 41 40 39 38 38 37 35 37 40 37 34 36 36 37 38 37 34 35 34 34 34 33 31 31 29 28 27 27 26
48 45 41 45 47 46 42 37 37 37 32 38 40 40 38 42 37 35 38 35 36 32 34 35 34 32 35 37 36 36 36 36 35 35 35 34 32 26 27 27 28 28 27 27
48 45 47 46 43 39 35 33 34 36 33 37 38 39 40 40 42 36 36 33 35 31 36 34 31 34 36 36 35 35 36 35 35 34 33 29 25 27 28 29 28 24 22 24
45 40 38 37 37 32 32 29 31 31 35 37 37 35 37 38 37 35 35 32 32 35 31 29 32 35 36 35 35 35 34 33 29 28 29 30 30 30 29 28 26 23 20 22
38 36 33 34 32 31 32 33 34 34 36 37 37 36 34 36 34 35 31 33 33 30 27 29 33 35 35 35 34 32 28 28 29 29 28 26 25 24 24 22 22 22 19 21
34 34 29 29 30 32 32 34 34 35 38 37 36 36 35 33 32 32 31 29 27 28 28 32 35 34 34 31 28 27 27 27 28 29 26 24 23 21 21 22 19 18 16 17
33 31 30 32 31 31 32 33 33 35 37 39 37 33 31 32 32 30 29 28 27 30 32 35 34 33 31 27 27 28 29 30 30 29 27 25 22 18 15 19 17 15 13 15
31 29 31 32 31 30 30 32 32 36 36 33 34 30 29 33 30 28 30 28 29 31 33 34 33 31 28 28 29 29 30 29 26 24 23 21 21 18 15 11 16 16 14 15

GFSNW_sfc_30mbdewp_063.txt.gz
Dewpoint
41 41 43 42 42 44 46 41 33 48 50 41 40 34 35 35 33 33 34 37 36 32 22 20 20 19 19 22 25 19 27 22 17 20 28 30 26 23 24 20 18 23 20 17
41 40 40 42 41 43 43 37 37 49 46 35 36 35 34 35 31 32 32 34 35 34 24 19 22 22 24 30 27 24 29 25 19 21 24 29 29 27 27 28 25 21 18 18
41 41 40 39 41 41 45 37 32 43 44 39 35 33 33 34 36 35 35 36 36 34 31 27 23 23 33 33 30 31 28 26 21 19 19 22 23 24 24 24 20 19 20 19
41 41 41 40 39 40 43 37 32 38 34 37 38 33 33 34 33 35 34 33 34 34 31 26 25 32 33 33 32 31 28 23 23 23 23 23 22 23 24 22 22 20 21 22
40 41 41 40 39 41 39 34 36 39 37 36 37 33 31 32 33 32 32 29 33 29 30 30 25 31 31 29 32 29 30 22 23 23 26 26 25 25 24 24 24 25 24 23
40 40 40 40 41 39 36 39 40 38 36 36 34 33 31 31 32 34 32 30 31 28 34 35 32 32 33 30 29 28 28 26 23 18 25 25 23 24 24 24 24 23 20 22
40 40 40 40 41 39 43 37 39 40 31 36 33 33 33 32 32 30 32 31 29 30 38 37 37 38 37 35 34 34 28 27 26 21 24 15 21 28 25 24 21 22 24 26
40 40 40 41 40 42 43 39 39 42 34 35 36 34 33 32 32 32 30 32 28 35 37 33 32 33 34 32 36 36 35 30 26 23 23 24 26 24 21 18 19 26 27 30
39 40 40 41 41 44 42 44 42 42 39 35 38 35 34 31 31 31 31 31 45 42 37 33 29 28 31 32 31 34 34 33 25 26 26 24 27 26 22 21 14 26 28 31
39 40 40 42 42 45 42 44 45 41 39 41 40 38 36 35 33 31 32 40 44 43 36 31 29 27 31 28 29 30 32 31 28 27 26 27 27 26 23 14 16 28 29 30
40 40 41 42 42 43 42 40 46 41 40 41 46 42 39 37 36 32 40 41 42 40 36 33 30 28 30 29 30 28 30 30 30 27 26 27 29 28 20 22 34 35 36 36
41 41 41 42 41 42 42 39 46 45 40 40 44 43 45 45 39 36 44 36 40 40 38 36 36 31 32 30 26 33 26 28 27 29 29 32 33 26 32 35 35 38 37 38
40 41 41 40 40 41 41 41 43 41 37 38 42 43 47 51 50 40 38 43 45 43 44 40 39 33 33 29 29 33 33 34 28 30 33 35 36 38 37 38 37 39 40 34
40 41 40 41 41 42 42 42 42 40 40 38 43 52 49 49 51 45 41 43 48 47 45 40 37 34 37 31 31 33 34 35 35 34 38 38 38 39 36 35 36 36 38 32
40 41 41 40 41 43 43 45 44 41 38 36 40 46 49 51 52 49 48 47 45 42 39 35 34 39 37 37 35 31 35 34 32 28 37 33 36 38 34 34 33 33 32 30
41 41 41 44 46 43 39 36 41 46 45 38 36 45 48 50 50 49 48 48 47 46 43 41 41 43 37 33 31 33 37 38 35 32 39 38 38 34 33 33 32 32 31 32
41 43 44 46 43 41 37 34 40 45 44 39 36 41 46 47 47 46 46 46 46 44 43 41 41 42 38 33 30 36 39 38 37 36 35 34 33 32 33 32 33 33 32 33
44 44 45 45 43 40 38 48 44 43 40 41 36 39 42 45 43 43 43 42 42 42 42 42 40 40 38 34 36 39 36 36 36 35 36 34 34 33 32 31 31 29 28 28
43 43 43 42 38 36 40 47 46 48 43 36 36 37 36 43 41 41 39 40 38 39 39 40 39 37 35 37 38 38 36 36 34 34 33 33 32 31 30 29 27 26 26 26
44 41 38 36 40 47 47 44 41 41 40 39 37 39 38 40 38 37 37 37 36 36 37 39 36 36 36 37 38 39 37 35 34 33 32 32 31 31 30 26 25 25 25 25
38 37 37 44 45 41 39 34 32 34 34 37 39 39 38 40 36 35 35 35 34 33 36 36 34 33 35 38 37 37 37 37 36 35 34 32 31 31 27 25 26 24 22 21
40 43 46 45 41 37 33 32 31 32 31 36 37 38 39 39 37 35 35 32 33 31 36 35 31 33 36 37 36 37 37 35 34 34 32 31 30 29 27 26 24 21 18 16
45 41 38 37 34 31 31 29 29 30 34 36 37 36 36 36 35 34 33 30 30 34 33 31 31 36 36 36 36 36 36 34 32 31 31 29 27 26 24 22 20 18 15 16
37 35 32 32 31 31 31 31 32 34 35 35 35 33 34 35 34 33 30 32 33 28 26 26 32 35 35 33 32 31 30 31 31 30 27 24 22 21 22 20 18 14 12 15
33 33 29 28 30 32 32 33 34 34 36 35 33 33 33 33 31 31 31 30 28 29 26 30 35 34 31 31 30 30 29 28 27 26 24 22 19 18 19 20 17 15 15 14
32 30 30 32 31 31 32 33 33 34 36 34 32 31 30 30 30 28 27 27 25 28 31 34 34 31 30 30 29 28 27 26 25 25 25 21 19 18 19 19 16 14 14 13
29 28 30 30 30 29 30 32 32 34 34 31 29 28 29 32 28 27 27 26 27 30 32 32 30 29 29 29 28 28 27 27 26 25 21 20 18 16 15 14 15 14 15 14

GFSNW_sfc_30mbdewp_069.txt.gz
Dewpoint
45 45 46 45 43 43 42 39 30 41 46 36 36 32 32 33 33 35 35 34 35 34 23 21 20 18 20 23 22 20 24 22 17 21 27 28 27 24 26 22 20 23 22 19
44 45 45 45 43 43 40 35 35 43 40 29 31 32 33 33 32 33 34 32 33 36 31 20 23 22 24 24 22 22 26 20 15 16 23 30 27 26 27 27 26 22 21 20
44 45 45 45 43 43 40 36 29 37 39 33 29 31 30 32 34 33 34 33 34 32 30 31 23 23 26 27 24 27 25 22 17 15 15 21 23 27 27 25 23 23 23 23
44 45 46 45 43 43 39 36 32 34 30 31 30 30 29 29 30 34 35 33 33 32 26 30 26 27 32 33 33 28 24 19 22 19 19 22 22 23 27 26 25 23 24 23
45 45 46 44 44 43 38 33 33 33 33 31 30 30 30 30 31 31 31 31 31 31 32 28 28 28 31 30 33 30 29 21 23 21 26 24 22 23 24 26 25 24 23 23
46 45 46 44 43 42 38 37 38 34 30 31 29 27 29 32 31 32 32 32 31 32 30 33 34 34 32 33 31 31 28 25 23 20 26 25 23 24 25 25 26 25 22 23
46 45 46 44 43 41 39 36 36 34 27 32 30 28 30 30 32 31 34 33 31 31 34 34 33 35 36 36 34 33 29 27 26 21 24 20 23 27 26 25 25 26 25 25
46 45 45 43 42 41 35 35 34 36 28 29 32 30 27 33 33 32 32 35 36 36 35 30 28 24 27 33 36 34 31 27 24 22 22 22 21 23 24 22 17 23 24 25
46 45 44 43 42 41 36 36 36 37 31 30 33 32 29 30 31 33 34 36 37 34 31 32 26 17 28 30 33 34 32 30 26 24 20 19 22 24 26 22 19 23 24 26
45 45 44 43 42 41 35 36 38 37 35 35 36 32 32 31 32 31 34 33 36 37 32 28 27 28 31 30 30 31 30 28 25 23 22 24 27 26 23 21 21 21 27 31
45 44 43 43 42 41 36 35 40 36 34 37 39 40 35 32 32 29 33 33 34 37 30 30 30 28 30 31 32 32 29 27 26 25 24 22 30 22 21 25 25 26 31 34
45 43 43 42 41 41 38 34 39 39 35 37 43 42 42 36 34 32 35 32 32 36 32 31 32 31 32 29 25 33 30 30 27 28 26 32 29 28 26 27 26 31 31 35
44 43 43 42 41 41 38 37 39 37 33 31 35 37 42 44 41 36 33 38 38 38 40 35 34 31 33 29 30 31 32 33 31 30 31 32 33 32 34 32 31 35 36 34
43 43 43 42 40 41 37 36 38 36 37 30 35 45 39 46 44 40 39 38 45 44 42 37 36 34 35 31 32 31 33 33 32 31 32 36 35 37 36 36 38 37 34 33
43 43 42 42 41 40 38 38 40 39 39 33 33 39 42 50 46 44 42 44 42 41 39 37 36 38 36 36 35 33 35 32 30 29 31 30 28 34 37 36 37 34 32 30
42 42 41 41 41 40 37 34 40 40 42 36 31 40 41 49 50 48 44 42 43 42 39 38 41 42 39 34 33 33 36 37 37 32 37 36 36 36 37 37 36 32 31 30
41 41 41 40 41 40 36 35 39 42 43 36 31 33 43 48 47 46 45 44 42 41 40 39 40 41 38 34 32 33 38 38 38 37 36 35 35 35 34 35 33 32 31 30
41 41 42 42 40 40 39 45 44 41 39 39 30 32 40 46 42 41 43 42 42 41 40 40 40 40 37 36 35 37 36 36 36 36 35 36 34 33 33 33 32 31 30 30
41 41 41 40 39 37 39 45 44 45 38 33 32 31 35 43 40 40 40 41 39 39 39 39 40 37 36 37 36 36 36 36 35 34 33 33 33 32 32 32 31 30 29 28
41 38 36 33 37 45 45 42 37 37 39 38 33 38 36 40 38 36 39 37 36 37 39 40 38 36 38 38 39 39 38 37 34 33 32 32 31 31 31 30 30 29 28 26
40 37 35 40 45 39 37 33 32 33 32 35 35 37 37 39 36 35 36 34 34 34 36 37 35 35 36 37 38 38 37 35 35 34 34 33 32 30 29 29 29 28 26 24
38 40 44 43 38 35 31 30 31 32 31 35 34 37 38 37 37 34 34 33 32 32 36 36 32 33 36 37 36 35 35 35 34 33 31 29 28 28 28 27 26 25 25 25
41 38 36 33 33 29 27 25 27 30 33 35 36 35 36 35 35 33 32 31 30 35 33 32 31 35 36 35 34 33 33 32 30 29 29 28 28 28 26 25 25 25 24 24
33 32 30 30 29 30 31 29 30 33 34 35 35 34 35 34 33 32 31 31 32 29 28 28 31 32 33 33 32 31 30 30 29 28 27 26 24 23 24 24 24 23 22 22
30 32 27 28 30 31 32 32 33 33 35 35 34 33 34 32 30 31 31 29 27 27 26 29 31 31 31 30 30 29 27 27 26 25 23 23 23 22 22 22 22 20 19 18
30 28 28 30 30 29 30 31 32 33 34 33 33 32 30 29 29 27 25 25 23 26 28 30 30 29 28 27 27 26 26 25 24 24 23 22 21 20 19 19 18 17 17 16
28 26 27 27 28 26 27 29 28 32 34 30 30 28 28 30 27 24 25 23 25 28 28 29 28 27 26 26 26 25 24 24 23 23 22 20 19 16 16 14 14 15 17 18

GFSNW_sfc_30mbdewp_072.txt.gz
Dewpoint
46 45 45 44 45 45 44 37 30 36 42 32 34 30 26 26 24 34 35 35 36 34 25 22 16 17 18 23 23 23 21 21 18 20 26 28 25 23 25 19 19 22 22 18
45 45 45 45 45 45 41 34 35 39 39 27 30 30 28 25 27 25 32 33 33 36 34 23 23 21 25 24 23 21 24 21 18 18 22 28 25 25 25 25 26 19 19 19
45 45 45 45 46 45 41 34 29 33 37 31 28 27 26 26 27 28 29 31 33 33 31 32 27 26 28 27 24 28 26 20 19 16 14 15 19 19 22 21 20 17 17 18
45 46 45 45 46 45 40 36 32 29 29 31 28 27 23 24 24 28 29 31 32 30 29 31 29 28 32 30 31 26 25 18 20 18 16 15 16 15 18 20 19 15 19 17
45 46 45 45 46 45 38 32 31 29 27 32 30 28 27 22 24 26 24 27 29 31 30 28 30 30 28 30 34 29 29 20 22 20 20 20 18 19 19 22 21 21 22 19
45 45 46 46 46 44 37 36 31 27 29 29 31 28 27 27 24 25 26 26 22 28 31 36 35 34 34 32 32 32 30 24 24 19 24 24 24 24 22 22 25 24 19 19
45 46 46 46 46 43 38 36 31 31 23 28 28 28 26 24 25 26 26 28 29 30 36 33 31 29 29 29 30 33 32 29 27 21 26 22 21 26 24 23 23 24 24 24
43 45 46 46 46 43 38 37 33 29 26 23 25 28 26 24 27 27 27 29 30 34 31 27 25 27 19 20 23 33 34 31 29 28 23 20 23 24 25 24 22 22 22 22
43 44 46 45 46 43 40 37 36 32 29 25 24 26 28 25 26 31 30 32 38 36 34 30 20 16 16 23 33 35 34 34 31 28 25 22 22 24 27 26 21 23 23 24
43 44 46 45 45 43 41 38 38 34 29 29 26 26 32 28 25 30 33 35 36 36 34 34 30 21 20 21 30 33 33 33 31 29 29 25 29 28 27 21 22 26 25 26
42 43 45 45 44 43 40 37 40 35 31 34 35 32 31 32 27 29 30 32 35 35 34 33 32 30 29 23 22 29 31 31 30 31 30 25 29 26 23 25 32 29 30 31
42 43 45 45 44 43 39 37 40 37 34 35 40 40 42 43 34 32 34 30 31 34 30 34 28 34 34 28 24 32 29 32 30 30 28 34 30 27 29 32 28 31 31 34
42 44 45 44 44 42 39 38 40 37 35 33 34 33 34 37 43 43 32 33 28 34 34 37 37 32 35 32 29 27 33 36 33 33 29 32 34 31 35 31 32 33 35 35
43 44 44 44 43 43 39 37 39 34 30 28 27 35 39 40 41 43 42 32 43 37 41 39 37 35 32 29 26 29 29 33 32 31 32 35 36 37 35 34 36 37 37 36
44 44 44 44 43 40 38 40 36 33 28 28 25 28 36 40 39 40 42 40 38 41 38 38 35 33 38 39 37 33 34 32 33 32 32 33 30 37 39 37 37 37 35 34
44 44 44 43 42 39 37 34 38 35 36 34 30 38 37 37 42 42 41 38 37 39 36 38 35 43 39 36 33 31 32 35 35 34 38 38 38 37 37 39 38 38 35 34
43 43 43 42 40 36 31 29 36 39 39 35 31 34 39 40 41 42 40 39 38 39 41 41 40 43 40 40 34 30 35 36 39 39 38 37 37 36 37 37 36 34 33 32
43 43 41 39 37 36 34 43 43 40 37 37 31 31 34 46 42 40 41 39 40 41 39 42 40 42 41 37 34 34 37 38 38 38 38 37 36 35 35 35 33 32 31 30
41 41 40 38 35 32 36 44 40 39 36 32 31 29 31 43 40 41 42 43 38 42 39 40 40 39 38 39 34 37 37 37 37 37 36 35 35 34 34 34 33 32 31 30
40 38 36 32 37 45 44 41 38 37 36 38 32 34 31 39 36 36 38 39 37 35 38 42 40 37 39 39 39 40 39 38 37 35 34 34 34 34 34 34 33 32 30 30
36 36 34 39 45 42 37 32 32 33 31 35 34 33 32 38 32 34 37 36 35 34 37 38 37 34 37 38 39 39 39 38 36 36 35 35 35 34 33 32 31 29 28 27
39 39 40 41 37 35 31 30 31 31 29 36 35 35 36 37 38 34 35 33 32 32 38 37 33 35 36 37 37 37 37 36 34 34 33 33 32 32 31 30 28 28 27 26
42 38 36 33 33 27 26 25 28 29 34 36 36 35 37 38 37 33 33 32 31 34 33 30 30 34 36 35 34 33 33 32 31 30 30 30 29 29 28 27 27 27 26 26
35 32 29 30 27 29 31 31 31 35 36 36 37 34 35 34 33 33 31 31 32 30 30 27 30 30 31 32 31 30 29 28 28 27 27 26 25 25 26 26 26 25 25 25
31 32 28 29 31 31 31 32 33 33 36 36 36 35 34 32 31 32 32 30 26 26 25 28 29 30 30 29 28 27 26 25 24 24 24 24 24 24 24 25 24 23 22 21
31 27 27 28 30 28 29 29 31 32 34 34 35 32 31 30 30 28 26 26 23 25 27 29 28 27 26 25 25 25 25 24 24 24 23 23 22 21 21 21 20 21 21 20
29 25 26 26 27 24 26 27 27 31 34 31 32 30 27 31 27 24 25 22 24 26 26 27 27 26 25 25 25 24 24 24 24 23 22 21 19 16 16 18 18 16 17 18

GFSNW_sfc_30mbdewp_075.txt.gz
Dewpoint
45 45 46 46 45 45 44 40 31 36 40 33 33 29 28 27 21 19 15 18 23 18 21 26 22 20 18 21 20 20 20 19 17 19 21 20 20 21 21 19 17 19 18 18
45 45 45 46 46 45 43 34 35 38 39 27 27 27 25 27 23 19 21 25 27 32 27 27 24 21 22 22 21 20 21 18 16 17 19 24 22 22 23 22 21 19 24 23
45 45 45 46 46 46 43 35 29 35 37 29 24 22 22 23 24 24 17 24 23 26 30 32 26 27 27 29 23 25 26 19 19 17 16 19 19 18 19 20 23 22 19 16
45 45 45 45 45 46 43 36 30 29 29 31 27 23 19 20 20 22 23 19 23 24 23 26 24 30 29 30 28 27 25 20 18 17 16 15 13 15 16 16 19 18 19 16
43 45 45 45 45 46 41 33 27 27 23 29 28 25 22 18 18 18 19 23 21 22 20 26 19 25 31 27 31 26 26 23 20 16 18 16 13 13 14 13 14 15 15 15
42 43 45 45 45 46 39 38 30 27 24 26 27 27 24 20 17 19 19 21 23 22 23 33 34 33 33 33 31 30 27 26 21 20 18 18 18 17 16 16 16 17 17 18
42 42 43 46 46 45 40 37 30 29 25 21 25 25 25 21 18 20 20 22 23 24 26 34 32 35 32 31 28 29 31 28 26 25 26 21 21 22 20 18 17 19 20 19
43 42 42 44 45 46 42 38 34 28 28 22 21 25 25 23 23 22 26 21 26 25 31 29 27 28 32 29 29 26 26 31 28 27 25 22 19 23 22 19 18 19 19 21
42 43 42 43 46 46 43 38 37 29 28 24 21 22 27 24 23 23 26 30 30 31 30 27 20 15 14 9 27 30 24 32 33 32 25 21 22 24 24 22 20 21 21 21
43 44 43 43 45 45 43 39 40 34 26 25 24 26 29 28 25 25 21 29 31 35 31 30 26 18 11 7 23 33 33 34 34 32 29 24 22 24 24 23 22 22 23 22
43 44 43 43 46 45 43 40 40 35 28 28 27 31 27 28 28 25 24 30 33 35 32 33 25 19 16 12 11 18 34 31 33 32 31 28 30 28 24 27 27 29 29 26
44 44 43 44 45 45 43 39 41 38 32 32 40 40 40 33 30 29 28 30 30 31 30 31 28 24 26 20 17 14 26 32 31 29 30 31 31 28 31 29 30 31 30 29
44 44 43 45 45 45 42 40 39 38 37 37 34 34 38 42 42 40 36 34 30 30 31 29 29 28 25 29 26 18 19 22 27 27 27 31 32 34 32 33 33 32 34 33
43 43 44 45 45 43 42 39 38 38 34 30 28 31 35 34 40 40 41 42 41 35 32 33 33 33 21 27 23 22 23 25 28 26 26 27 34 35 36 34 35 33 34 33
43 43 44 45 43 42 42 39 39 35 28 28 26 31 31 37 38 38 39 41 41 39 35 38 35 28 21 26 28 26 24 23 27 31 30 31 30 35 37 37 36 37 36 35
43 44 45 43 42 42 38 34 38 33 37 33 29 36 28 31 36 37 37 39 41 41 32 36 32 25 24 28 26 26 22 23 29 29 34 37 40 38 38 39 38 38 38 36
44 45 43 42 40 36 34 34 36 36 33 32 28 30 36 29 30 33 36 38 40 40 37 34 33 30 34 35 32 20 22 26 26 33 38 36 37 36 38 38 37 37 37 35
44 42 41 40 39 39 38 40 37 39 34 32 30 30 33 39 34 31 34 38 39 40 37 39 37 39 41 33 29 28 26 31 37 38 39 38 38 37 36 36 35 34 33 33
41 41 41 39 38 34 40 43 38 36 32 30 31 29 28 35 39 36 37 38 35 36 35 37 37 38 37 35 33 31 32 30 33 37 37 36 36 36 35 35 34 33 32 31
40 38 36 33 39 42 39 37 36 33 34 35 32 35 30 34 32 36 38 37 33 33 38 35 36 35 33 39 40 40 41 39 39 38 37 37 36 36 35 35 35 34 32 32
34 35 35 38 42 39 37 31 31 32 31 33 32 33 31 37 31 33 37 36 38 33 34 33 32 31 35 39 39 40 40 40 38 38 37 37 38 36 35 34 34 33 32 31
39 39 40 40 37 35 30 30 32 31 28 34 33 34 34 36 34 31 35 35 35 32 39 36 33 33 36 37 38 38 38 37 35 36 36 35 34 34 32 31 29 28 27 27
40 36 33 35 33 28 27 25 28 29 34 37 37 34 36 36 33 31 33 32 32 36 35 30 30 33 34 34 34 34 34 33 33 32 32 31 31 31 30 28 28 28 26 26
35 33 29 30 27 30 30 29 32 35 37 37 35 33 33 33 31 32 32 31 32 31 29 26 28 29 30 31 30 29 29 28 28 27 27 26 26 26 27 27 27 26 25 25
32 33 27 29 31 31 32 33 34 33 37 38 37 36 34 32 31 32 32 30 26 27 26 27 28 29 28 27 26 26 25 25 25 25 25 25 25 25 25 26 25 24 23 22
31 27 28 27 30 28 28 28 30 31 33 35 37 33 31 30 31 29 26 27 23 24 26 27 27 25 25 25 25 25 25 25 25 25 25 24 24 23 23 23 23 23 23 22
28 25 26 27 28 25 24 25 25 29 32 31 33 29 27 32 27 24 25 21 24 25 26 27 27 26 25 26 26 26 26 26 26 25 24 24 24 23 21 20 21 19 18 19

GFSNW_sfc_30mbdewp_078.txt.gz
Dewpoint
45 45 45 45 45 46 45 40 31 41 40 33 32 29 29 26 20 20 22 22 21 11 16 25 27 21 22 25 23 20 21 21 19 19 20 20 20 21 23 23 19 25 27 24
45 45 45 45 45 46 43 35 35 40 39 27 28 27 27 26 21 18 19 21 20 19 24 21 27 25 24 25 26 21 23 20 20 18 19 21 20 19 21 22 22 21 23 22
45 45 45 45 45 45 44 34 29 36 38 32 26 24 22 23 23 22 19 23 23 25 32 36 26 27 26 32 30 31 27 23 20 20 20 21 18 18 18 23 24 24 24 22
45 45 45 45 45 45 44 33 31 32 29 32 30 24 20 20 19 20 23 23 24 26 30 34 26 31 32 32 32 29 27 24 23 19 18 17 18 19 19 18 18 17 21 20
44 44 45 45 46 45 41 31 31 29 28 30 31 28 24 19 16 16 17 20 23 23 32 23 21 25 36 33 34 34 28 25 24 23 19 19 17 17 17 17 16 15 16 16
42 43 43 44 46 45 40 38 35 30 30 31 29 27 25 21 19 16 16 17 20 23 30 34 35 30 35 38 35 31 34 27 25 24 23 18 16 18 16 13 15 15 14 17
42 42 42 42 44 46 41 39 35 32 30 26 31 25 24 22 20 18 16 18 17 24 29 43 38 37 33 33 35 37 32 30 29 26 25 20 21 22 20 18 18 19 18 18
42 42 41 42 43 44 43 41 35 33 30 26 24 26 23 22 23 21 20 19 19 21 24 28 34 31 32 32 30 35 36 32 35 28 25 24 21 22 21 21 21 21 20 19
42 42 41 42 42 42 44 41 40 34 30 28 24 25 27 23 22 22 23 23 27 26 29 29 30 28 24 28 29 31 35 35 30 31 26 25 27 25 25 25 21 23 22 22
42 42 42 42 43 43 43 41 42 36 32 29 27 26 25 29 24 23 23 24 28 32 29 32 31 28 17 13 22 28 32 34 31 29 30 27 26 25 26 22 24 26 26 24
43 43 42 42 43 43 42 41 43 38 35 29 29 36 34 30 28 23 23 25 29 33 30 33 31 28 23 17 14 33 34 34 31 33 30 26 30 28 23 27 31 29 29 28
43 43 44 43 43 43 43 39 42 41 35 37 39 35 39 32 31 28 27 27 27 31 32 33 31 27 24 20 16 25 30 31 33 31 30 35 34 30 32 31 33 33 33 32
43 43 43 44 43 42 44 41 40 40 39 38 39 36 38 41 40 41 29 30 29 31 35 31 31 27 25 26 24 17 17 31 33 33 31 34 38 41 36 35 34 34 34 35
43 44 44 43 44 42 44 41 41 41 38 34 31 33 32 36 40 41 37 35 38 43 42 34 32 30 28 27 27 25 24 21 25 27 28 28 29 36 37 37 37 36 34 35
43 44 44 44 43 44 43 41 43 41 32 31 31 32 31 34 34 38 39 38 39 41 39 36 32 34 32 30 28 25 24 22 24 29 29 30 31 34 37 38 34 34 36 35
44 44 43 43 45 44 41 36 42 41 41 31 27 32 30 31 32 36 36 38 38 40 41 37 36 33 32 27 26 26 27 26 26 26 32 37 41 38 38 40 40 39 38 38
44 43 45 44 44 42 37 35 41 43 39 32 30 28 32 31 34 33 34 36 37 39 41 39 37 34 32 30 29 25 25 25 23 28 25 37 38 39 38 37 37 37 38 37
43 43 44 43 42 40 38 41 40 40 32 31 30 28 35 38 31 31 34 32 38 39 39 39 36 34 34 30 28 30 30 28 27 38 40 39 39 37 36 36 35 35 35 35
43 42 42 39 40 38 38 39 40 41 36 31 31 28 29 35 36 32 32 34 35 39 36 37 37 35 33 33 31 30 28 27 26 28 37 38 37 36 36 35 35 34 33 32
40 38 36 32 39 40 36 37 36 34 35 36 31 33 31 33 33 34 33 35 33 33 35 39 36 34 34 33 37 41 41 39 39 39 38 37 37 36 36 35 35 33 32 34
39 37 36 39 41 40 37 32 29 30 30 32 32 33 31 36 30 31 36 34 36 31 32 33 35 31 35 40 40 40 40 39 39 39 38 38 39 37 35 33 32 31 30 27
39 39 39 40 37 34 31 30 31 30 27 31 32 33 33 35 36 32 33 34 35 29 33 31 27 33 37 38 39 38 37 37 36 36 35 34 34 32 31 29 28 27 27 26
36 35 34 35 33 27 27 24 26 28 32 34 36 34 36 34 35 32 32 32 30 38 32 31 28 32 33 33 33 33 33 33 31 31 31 30 30 29 28 26 26 26 24 25
35 33 28 29 27 30 30 32 31 35 38 36 36 34 32 32 29 31 30 32 34 31 28 26 27 28 29 29 29 28 28 28 28 27 26 26 26 26 26 26 26 25 24 24
32 33 26 27 30 30 30 32 33 32 35 38 36 34 32 30 31 31 31 29 27 27 24 26 26 27 26 25 25 25 25 25 25 25 24 24 24 24 23 24 24 23 23 22
29 26 27 27 30 26 25 24 27 29 29 35 36 32 30 29 31 28 26 25 22 23 25 26 26 24 24 24 25 25 25 25 25 25 25 24 23 23 23 23 23 23 23 22
28 25 26 27 26 24 23 23 24 28 30 31 32 28 26 32 27 23 22 20 22 24 25 26 25 25 25 26 26 26 26 26 26 25 25 24 24 23 20 20 19 19 19 20

GFSNW_sfc_30mbdewp_084.txt.gz
Dewpoint
41 41 42 42 43 45 43 38 31 41 42 31 31 27 24 23 23 24 22 22 18 18 15 17 20 21 27 28 33 29 21 21 20 21 23 23 23 22 24 24 25 27 25 23
41 42 42 43 44 44 41 35 34 42 40 26 27 28 29 28 24 25 26 23 22 23 22 20 18 25 28 35 38 27 23 20 21 19 22 23 22 22 24 27 28 26 25 24
41 42 43 43 43 44 43 32 28 35 38 34 26 26 28 28 27 28 27 25 25 25 24 23 23 22 28 36 34 38 30 25 19 18 19 22 22 23 23 25 24 23 26 25
42 43 43 44 44 44 43 32 30 33 28 31 30 28 26 26 25 27 27 27 26 24 24 22 22 22 35 35 36 39 34 24 25 24 23 24 23 23 23 22 23 22 22 24
42 43 43 44 44 45 41 31 32 35 29 29 32 29 27 26 25 26 24 24 24 23 23 22 18 26 33 33 36 37 36 27 26 24 26 25 27 27 23 23 22 23 23 24
42 43 43 44 44 45 39 38 36 33 29 29 28 28 29 26 27 27 27 26 24 23 23 23 23 28 37 40 38 36 37 32 25 22 25 25 25 26 26 25 26 23 20 22
42 43 43 44 44 45 41 39 38 32 27 29 27 27 29 30 26 28 28 27 26 25 24 27 37 36 36 36 35 39 37 35 34 26 26 22 30 29 27 25 25 24 21 20
43 43 43 44 44 45 43 42 38 34 27 30 30 28 28 28 29 28 27 28 28 28 25 26 25 28 29 29 34 34 41 37 33 30 28 27 28 27 23 23 22 23 21 20
43 43 43 43 43 43 44 42 41 37 31 28 32 31 30 29 28 28 29 30 30 28 26 23 21 20 27 27 33 38 38 37 33 31 28 25 27 28 29 26 21 25 24 23
43 43 43 43 44 44 42 42 42 38 31 32 30 29 31 32 29 27 27 27 27 28 25 22 21 19 28 24 26 32 32 32 30 31 29 30 32 33 29 25 23 26 26 26
43 43 43 43 44 44 42 40 42 37 32 35 31 30 32 32 30 28 28 27 28 30 24 22 22 24 25 28 30 29 32 28 28 30 28 26 33 33 26 30 34 34 31 32
42 41 42 42 43 43 43 38 41 39 34 35 40 34 34 33 33 32 31 27 25 27 27 28 25 24 28 27 24 29 28 31 28 27 26 30 35 38 39 39 37 36 36 36
43 42 42 42 42 43 42 40 41 39 35 32 33 36 33 37 39 40 33 34 30 34 35 30 27 25 28 25 25 26 32 35 31 33 30 32 34 40 38 35 35 35 35 38
44 43 43 43 42 42 41 40 40 37 35 29 31 39 36 40 41 40 42 40 41 38 38 29 28 28 32 26 25 25 24 33 31 29 29 32 31 34 33 33 34 35 36 37
45 44 44 43 44 42 42 41 41 38 31 28 33 36 38 37 37 37 40 42 40 35 32 33 32 36 34 34 32 25 27 29 29 27 29 31 25 33 32 33 33 35 36 36
43 43 43 43 44 43 41 35 40 40 38 35 31 36 38 39 37 37 39 41 39 37 34 34 36 39 34 34 29 29 28 28 30 29 29 34 36 39 41 38 38 39 40 39
44 44 44 44 44 42 35 34 39 42 40 33 32 33 39 39 38 38 39 38 38 37 36 34 34 34 34 33 30 32 33 31 33 35 40 38 39 37 37 38 37 37 36 37
43 43 44 44 44 41 36 42 42 41 38 35 30 32 34 39 35 33 37 34 36 36 34 36 33 33 33 29 32 31 33 33 32 35 39 38 37 37 36 36 35 32 30 28
43 44 44 41 40 38 40 43 42 42 37 31 29 27 28 35 35 34 34 34 31 34 33 32 34 32 29 32 34 35 33 31 31 39 37 37 36 36 35 34 30 28 26 25
41 39 35 32 40 43 42 39 33 35 37 32 29 31 29 33 32 32 32 32 29 28 31 35 31 28 30 38 39 37 36 38 36 38 36 36 34 32 30 28 27 26 24 23
38 35 32 41 44 38 34 30 30 31 29 32 32 30 30 34 29 31 32 30 29 26 27 31 30 30 33 35 35 36 34 33 33 35 34 34 31 29 27 25 25 24 23 22
37 38 41 39 36 33 27 26 29 27 23 31 30 31 31 33 35 28 30 27 30 24 32 30 28 31 33 33 33 33 32 32 31 31 30 29 27 26 25 24 23 23 22 22
39 35 33 29 29 24 21 22 25 25 30 32 34 31 32 33 33 30 30 27 26 33 29 26 27 29 31 30 30 29 29 28 27 27 26 26 25 25 24 23 23 23 22 22
33 28 26 27 24 25 25 28 29 30 32 32 33 32 31 32 29 31 26 28 32 27 25 25 26 26 27 28 28 26 26 26 25 24 24 24 23 22 23 22 22 21 20 21
26 25 23 23 25 25 24 26 28 27 30 34 32 32 32 30 29 29 28 27 25 24 23 22 25 26 25 25 25 24 24 23 23 22 22 21 21 21 21 22 22 21 20 19
23 21 22 23 20 20 21 22 23 27 27 31 33 30 28 28 28 25 19 20 18 18 20 23 24 24 24 24 24 23 23 22 22 22 21 21 20 20 20 21 21 20 19 18
22 19 23 23 21 20 22 23 23 26 27 29 30 23 21 26 21 16 19 15 18 21 22 24 24 23 23 23 22 22 22 21 21 21 21 21 22 21 20 18 19 19 19 18

GFSNW_sfc_30mbdewp_087.txt.gz
Dewpoint
40 40 41 42 42 42 42 37 29 40 41 31 29 25 21 22 22 23 24 22 17 18 19 16 14 16 22 27 31 29 35 26 18 18 21 23 21 20 22 22 24 26 23 22
40 41 41 41 41 42 39 33 31 42 39 24 25 25 24 24 22 21 25 25 25 24 21 21 22 20 20 23 34 33 37 32 21 19 20 21 20 22 24 28 28 25 23 23
40 41 41 41 42 43 41 34 28 33 36 34 28 24 25 26 30 26 25 24 25 25 22 23 23 24 25 28 34 36 36 36 32 20 19 19 20 21 23 25 23 24 26 25
40 41 41 41 42 43 41 35 30 33 26 29 30 26 25 25 25 30 30 28 27 26 23 23 23 23 21 27 38 34 36 32 34 28 21 20 24 24 24 23 25 23 24 26
40 41 41 42 42 43 40 32 31 35 30 30 31 30 27 24 25 25 25 25 24 27 26 23 19 18 18 27 37 36 37 32 35 28 25 20 18 21 25 27 27 24 24 24
40 41 41 42 43 43 38 38 37 35 31 28 28 28 28 27 26 25 27 26 26 25 26 26 26 26 25 27 31 35 33 33 32 27 26 26 24 24 23 23 27 24 22 25
41 41 42 43 43 43 41 39 37 31 26 30 28 26 29 28 27 26 27 27 26 26 28 28 28 28 26 25 28 35 33 33 32 30 25 22 26 27 28 27 26 28 26 25
42 42 42 43 43 43 42 41 38 34 27 27 29 27 26 29 30 29 28 27 30 31 29 26 25 27 30 31 34 34 35 34 31 28 26 26 28 29 28 27 27 28 27 24
42 42 42 43 44 43 42 41 42 37 31 28 30 28 27 26 27 28 29 31 30 29 27 25 24 19 23 24 32 37 35 35 32 30 27 23 27 28 31 33 28 28 26 28
42 43 43 43 43 43 42 41 43 38 32 32 30 28 28 29 28 27 28 29 30 31 27 25 23 21 24 20 21 32 33 34 31 30 29 29 32 33 35 31 29 31 27 27
43 43 43 43 43 44 44 41 43 38 33 35 32 31 30 31 30 27 28 27 28 29 25 22 21 22 23 22 24 29 30 30 30 31 28 24 30 35 31 31 35 34 32 29
42 43 43 43 43 43 44 38 42 43 36 35 38 37 35 32 31 31 30 28 28 29 25 25 24 21 25 24 20 31 25 27 28 31 26 29 31 34 35 38 36 36 36 35
42 42 42 43 43 44 43 40 40 39 33 33 34 32 34 37 36 36 29 33 30 31 34 30 26 22 23 17 23 25 30 33 32 31 30 30 30 34 40 40 35 35 36 39
43 42 42 42 43 43 43 41 41 38 35 28 28 32 30 36 35 40 38 34 40 38 38 31 28 25 29 24 24 26 27 34 33 31 30 30 29 32 35 36 36 35 36 37
44 44 43 43 42 42 42 42 42 38 29 25 25 35 33 30 34 37 39 36 35 35 30 32 30 32 31 32 31 27 27 26 27 23 26 28 29 30 35 36 35 37 36 36
45 44 44 43 42 41 41 33 41 40 37 29 26 34 33 38 39 38 38 37 36 36 35 34 34 37 32 28 26 29 29 28 31 29 31 33 35 38 39 40 40 41 40 39
43 42 43 44 43 42 35 32 38 41 38 32 27 31 36 38 38 37 38 39 37 37 36 35 33 33 32 33 29 29 31 31 30 33 35 36 38 37 38 37 35 34 33 35
43 43 44 43 43 40 37 42 41 39 36 35 26 30 34 38 35 34 38 35 38 37 36 35 32 32 32 27 30 29 29 31 30 32 33 36 39 37 36 33 30 28 27 26
43 43 43 42 38 36 38 42 40 40 36 29 30 27 27 37 35 36 35 36 32 34 33 33 33 29 28 27 28 35 38 37 37 37 38 38 37 36 32 30 28 25 24 24
41 38 35 32 39 43 42 39 35 35 36 33 28 32 29 34 33 31 32 30 28 27 29 34 32 28 30 34 38 37 36 35 35 37 36 35 33 30 28 26 25 24 23 23
38 34 35 41 39 36 33 29 30 30 29 32 32 31 30 33 29 30 30 29 28 25 25 28 27 27 30 37 36 34 33 32 32 33 35 34 30 27 25 24 23 23 22 21
39 39 41 39 35 32 28 26 29 27 26 30 30 30 32 33 31 30 30 27 28 23 29 29 24 30 33 33 32 32 32 31 29 28 28 27 25 24 23 23 22 22 22 21
36 34 33 32 29 24 22 21 24 25 29 31 31 29 31 32 31 29 27 25 24 31 29 26 28 30 30 30 30 29 28 28 27 26 26 25 25 24 23 22 22 22 21 20
30 26 23 21 20 22 22 25 28 28 30 32 32 30 29 31 28 28 25 26 30 25 21 23 26 26 27 28 28 27 26 25 25 24 23 23 22 22 22 22 21 20 19 19
24 23 21 20 23 23 24 25 26 26 29 33 32 31 31 29 27 28 27 26 24 23 21 22 25 25 25 24 24 24 23 23 22 22 21 21 21 20 20 21 20 19 18 17
21 19 20 21 20 18 20 21 22 26 26 32 33 29 28 27 27 25 21 20 18 17 19 23 24 24 23 23 23 23 22 22 21 21 21 21 20 19 19 19 19 19 18 17
19 18 20 19 18 17 19 20 21 25 26 28 28 23 20 25 19 16 19 15 18 20 21 23 23 22 21 22 22 22 21 21 20 20 20 20 20 20 18 16 17 17 16 16